SAA005 FAOR-EDDF

Flight info

Callsign SAA005
Flight time 9h 38m
Altitude 31000
Route VASUR3A VASUR UQ41 EVIPI DCT ETMIT UM214 OKLAP/N0503F300 UM214 DUGBA/N0508F320 UM214 RAPOL UA607 NUROK/N0503F340 UA607 FL UT237 INISA UM998 BOD UR978 ELO/N0486F360 UR978 CSO UA605 CIRTA DCT ETOIL DCT OMEDA DCT TORTU DCT ERTEV DCT ABESI DCT LADOL T163 EMPAX EMPAX5B
Aircraft A346/H-SDE2E3FGHIJ3J4J5M1RWXY/LB1D1

Departure

Time 2026-05-04 23:53
Airport O.R. Tambo International Airport (FAOR)

Arrival

Time 2026-05-05 09:32
Airport Frankfurt Main Airport (EDDF)
Time Latitude Longitude Altitude Speed Heading
2026-05-04 23:37 -26.13025 28.23371 5555 ft 0 kts 322°
2026-05-04 23:45 -26.13031 28.23377 5558 ft 0 kts 322°
2026-05-04 23:45 -26.13051 28.23394 5557 ft 0 kts 322°
2026-05-04 23:45 -26.13072 28.23412 5554 ft 1 kts 322°
2026-05-04 23:45 -26.13093 28.23430 5557 ft 2 kts 322°
2026-05-04 23:46 -26.13112 28.23443 5557 ft 1 kts 344°
2026-05-04 23:46 -26.13120 28.23444 5558 ft 2 kts 359°
2026-05-04 23:47 -26.13116 28.23444 5558 ft 1 kts 359°
2026-05-04 23:47 -26.13114 28.23444 5557 ft 0 kts
2026-05-04 23:48 -26.13108 28.23449 5556 ft 3 kts 44°
2026-05-04 23:48 -26.13111 28.23495 5557 ft 12 kts 99°
2026-05-04 23:48 -26.13128 28.23616 5555 ft 11 kts 97°
2026-05-04 23:48 -26.13161 28.23682 5556 ft 12 kts 172°
2026-05-04 23:49 -26.13268 28.23657 5556 ft 19 kts 194°
2026-05-04 23:49 -26.13419 28.23612 5558 ft 26 kts 195°
2026-05-04 23:49 -26.13611 28.23552 5562 ft 29 kts 195°
2026-05-04 23:49 -26.13803 28.23492 5568 ft 28 kts 195°
2026-05-04 23:50 -26.13989 28.23434 5570 ft 27 kts 195°
2026-05-04 23:50 -26.14170 28.23378 5571 ft 27 kts 195°
2026-05-04 23:50 -26.14358 28.23320 5573 ft 28 kts 195°
2026-05-04 23:50 -26.14532 28.23281 5572 ft 20 kts 173°
2026-05-04 23:51 -26.14606 28.23354 5571 ft 14 kts 102°
2026-05-04 23:51 -26.14591 28.23448 5574 ft 12 kts 34°
2026-05-04 23:51 -26.14554 28.23462 5574 ft 0 kts 15°
2026-05-04 23:51 -26.14543 28.23466 5571 ft 3 kts 15°
2026-05-04 23:52 -26.14517 28.23474 5573 ft 5 kts 15°
2026-05-04 23:52 -26.14441 28.23498 5571 ft 33 kts 15°
2026-05-04 23:52 -26.14003 28.23633 5571 ft 98 kts 15°
2026-05-04 23:52 -26.13145 28.23896 5556 ft 155 kts 15°
2026-05-04 23:53 -26.11959 28.24257 5596 ft 193 kts 14°
2026-05-04 23:53 -26.10629 28.24648 6133 ft 199 kts 13°
2026-05-04 23:53 -26.09296 28.25018 6950 ft 193 kts
2026-05-04 23:53 -26.08010 28.25359 7712 ft 190 kts
2026-05-04 23:54 -26.07122 28.25589 8004 ft 198 kts
2026-05-04 23:54 -26.05755 28.25658 8268 ft 199 kts 340°
2026-05-04 23:54 -26.04598 28.24868 8495 ft 204 kts 310°
2026-05-04 23:54 -26.03931 28.23440 8785 ft 215 kts 293°
2026-05-04 23:55 -26.03371 28.21849 9105 ft 225 kts 293°
2026-05-04 23:55 -26.02785 28.20201 9464 ft 235 kts 292°
2026-05-04 23:55 -26.01269 28.16741 9934 ft 266 kts 315°
2026-05-04 23:56 -25.99732 28.15539 10351 ft 274 kts 328°
2026-05-04 23:56 -25.98015 28.14534 10742 ft 285 kts 330°
2026-05-04 23:56 -25.96202 28.13484 11000 ft 299 kts 329°
2026-05-04 23:56 -25.94324 28.12373 11140 ft 313 kts 329°
2026-05-04 23:57 -25.92359 28.11193 11390 ft 327 kts 329°
2026-05-04 23:57 -25.90315 28.09956 11651 ft 342 kts 329°
2026-05-04 23:57 -25.88185 28.08660 11914 ft 356 kts 329°
2026-05-04 23:57 -25.85985 28.07321 12344 ft 363 kts 329°
2026-05-04 23:58 -25.83765 28.05968 13030 ft 364 kts 329°
2026-05-04 23:58 -25.81543 28.04614 13715 ft 365 kts 329°
2026-05-04 23:58 -25.79312 28.03250 14265 ft 367 kts 329°
2026-05-04 23:58 -25.77079 28.01887 14790 ft 370 kts 329°
2026-05-04 23:59 -25.74816 28.00506 15326 ft 372 kts 329°
2026-05-04 23:59 -25.72541 27.99117 15846 ft 375 kts 329°
2026-05-04 23:59 -25.70243 27.97714 16388 ft 377 kts 329°
2026-05-04 23:59 -25.67937 27.96308 16952 ft 380 kts 329°
2026-05-05 00:00 -25.65613 27.94893 17443 ft 382 kts 329°
2026-05-05 00:00 -25.64068 27.93952 17802 ft 383 kts 329°
2026-05-05 00:00 -25.60931 27.92041 18499 ft 386 kts 329°
2026-05-05 00:00 -25.58523 27.90689 18914 ft 391 kts 335°
2026-05-05 00:01 -25.55927 27.89725 19324 ft 396 kts 342°
2026-05-05 00:01 -25.53202 27.89164 19759 ft 402 kts 350°
2026-05-05 00:01 -25.50399 27.88923 20235 ft 405 kts 352°
2026-05-05 00:01 -25.47586 27.88735 20717 ft 407 kts 353°
2026-05-05 00:02 -25.44752 27.88554 21155 ft 409 kts 353°
2026-05-05 00:02 -25.41898 27.88372 21594 ft 411 kts 353°
2026-05-05 00:02 -25.39034 27.88189 22029 ft 414 kts 353°
2026-05-05 00:02 -25.36150 27.88004 22451 ft 416 kts 353°
2026-05-05 00:03 -25.33284 27.87819 22871 ft 419 kts 353°
2026-05-05 00:03 -25.30372 27.87632 23306 ft 421 kts 353°
2026-05-05 00:03 -25.27438 27.87443 23687 ft 424 kts 353°
2026-05-05 00:03 -25.24481 27.87253 24039 ft 426 kts 353°
2026-05-05 00:04 -25.21513 27.87062 24380 ft 428 kts 353°
2026-05-05 00:04 -25.18531 27.86872 24729 ft 430 kts 353°
2026-05-05 00:04 -25.15537 27.86680 25057 ft 432 kts 352°
2026-05-05 00:04 -25.12518 27.86487 25387 ft 434 kts 352°
2026-05-05 00:05 -25.09533 27.86296 25711 ft 437 kts 352°
2026-05-05 00:05 -25.06492 27.86100 26036 ft 439 kts 352°
2026-05-05 00:05 -25.03435 27.85904 26358 ft 441 kts 352°
2026-05-05 00:05 -25.00357 27.85707 26676 ft 443 kts 352°
2026-05-05 00:06 -24.97270 27.85509 26989 ft 446 kts 352°
2026-05-05 00:06 -24.94164 27.85309 27256 ft 448 kts 352°
2026-05-05 00:06 -24.91035 27.85108 27522 ft 451 kts 352°
2026-05-05 00:06 -24.87895 27.84899 27814 ft 453 kts 351°
2026-05-05 00:07 -24.84756 27.84560 28127 ft 453 kts 348°
2026-05-05 00:07 -24.81657 27.84140 28438 ft 455 kts 348°
2026-05-05 00:07 -24.78504 27.83717 28705 ft 457 kts 348°
2026-05-05 00:07 -24.75340 27.83292 28972 ft 460 kts 348°
2026-05-05 00:08 -24.72146 27.82864 29253 ft 461 kts 347°
2026-05-05 00:08 -24.68954 27.82437 29560 ft 461 kts 347°
2026-05-05 00:08 -24.65754 27.82006 29831 ft 463 kts 347°
2026-05-05 00:08 -24.62585 27.81580 30024 ft 466 kts 347°
2026-05-05 00:09 -24.59360 27.81147 30266 ft 468 kts 347°
2026-05-05 00:09 -24.56125 27.80713 30520 ft 468 kts 347°
2026-05-05 00:09 -24.52892 27.80280 30778 ft 469 kts 347°
2026-05-05 00:09 -24.49654 27.79846 31002 ft 469 kts 347°
2026-05-05 00:10 -24.46409 27.79412 31026 ft 470 kts 347°
2026-05-05 00:10 -24.39913 27.78542 31020 ft 471 kts 347°
2026-05-05 00:11 -24.33382 27.77668 31038 ft 473 kts 347°
2026-05-05 00:11 -24.26849 27.76797 31041 ft 473 kts 347°
2026-05-05 00:12 -24.20309 27.75925 31038 ft 473 kts 347°
2026-05-05 00:12 -24.13774 27.75054 31024 ft 474 kts 348°
2026-05-05 00:13 -24.07207 27.74178 31037 ft 476 kts 348°
2026-05-05 00:13 -24.00675 27.73311 31035 ft 476 kts 348°
2026-05-05 00:14 -23.94113 27.72440 31034 ft 476 kts 348°
2026-05-05 00:14 -23.87541 27.71568 31021 ft 476 kts 348°
2026-05-05 00:15 -23.80957 27.70693 31025 ft 477 kts 348°
2026-05-05 00:15 -23.74366 27.69822 31028 ft 477 kts 348°
2026-05-05 00:16 -23.67775 27.68951 31039 ft 477 kts 348°
2026-05-05 00:16 -23.61184 27.68080 31033 ft 477 kts 348°
2026-05-05 00:17 -23.54585 27.67206 31029 ft 479 kts 348°
2026-05-05 00:17 -23.47960 27.66334 31031 ft 479 kts 348°
2026-05-05 00:18 -23.41333 27.65463 31031 ft 479 kts 348°
2026-05-05 00:18 -23.34711 27.64593 31029 ft 479 kts 348°
2026-05-05 00:19 -23.28078 27.63719 31022 ft 481 kts 349°
2026-05-05 00:19 -23.21467 27.62853 31024 ft 482 kts 349°
2026-05-05 00:20 -23.14783 27.62142 31024 ft 483 kts 351°
2026-05-05 00:20 -23.08087 27.61502 31024 ft 483 kts 351°
2026-05-05 00:21 -23.01391 27.60853 31014 ft 484 kts 351°
2026-05-05 00:21 -22.94669 27.60192 31020 ft 485 kts 351°
2026-05-05 00:22 -22.87949 27.59533 31018 ft 485 kts 351°
2026-05-05 00:22 -22.81230 27.58873 31021 ft 485 kts 351°
2026-05-05 00:23 -22.74513 27.58213 31021 ft 485 kts 351°
2026-05-05 00:23 -22.67795 27.57554 31017 ft 485 kts 351°
2026-05-05 00:24 -22.61078 27.56895 31014 ft 485 kts 351°
2026-05-05 00:24 -22.54403 27.56240 31016 ft 485 kts 351°
2026-05-05 00:25 -22.47691 27.55583 31007 ft 485 kts 351°
2026-05-05 00:25 -22.40940 27.54921 31012 ft 487 kts 351°
2026-05-05 00:26 -22.34197 27.54263 31021 ft 487 kts 351°
2026-05-05 00:26 -22.27446 27.53605 31013 ft 487 kts 351°
2026-05-05 00:27 -22.20694 27.52947 31018 ft 487 kts 351°
2026-05-05 00:27 -22.13936 27.52287 31012 ft 489 kts 351°
2026-05-05 00:28 -22.07156 27.51630 31018 ft 489 kts 351°
2026-05-05 00:28 -22.00362 27.50972 31008 ft 489 kts 351°
2026-05-05 00:29 -21.93566 27.50465 31020 ft 491 kts 354°
2026-05-05 00:29 -21.86779 27.50186 31005 ft 492 kts 354°
2026-05-05 00:30 -21.79927 27.49909 31011 ft 493 kts 354°
2026-05-05 00:30 -21.73058 27.49634 31017 ft 493 kts 354°
2026-05-05 00:31 -21.66209 27.49361 31021 ft 493 kts 354°
2026-05-05 00:31 -21.59357 27.49087 31010 ft 493 kts 354°
2026-05-05 00:32 -21.52483 27.48811 31017 ft 494 kts 354°
2026-05-05 00:32 -21.45611 27.48539 31017 ft 494 kts 354°
2026-05-05 00:33 -21.38737 27.48267 31021 ft 494 kts 354°
2026-05-05 00:33 -21.31906 27.47997 31012 ft 494 kts 354°
2026-05-05 00:34 -21.25027 27.47724 31016 ft 495 kts 354°
2026-05-05 00:34 -21.18167 27.47229 31025 ft 492 kts 350°
2026-05-05 00:35 -21.11475 27.46044 31025 ft 489 kts 345°
2026-05-05 00:35 -21.04877 27.44320 31025 ft 488 kts 343°
2026-05-05 00:36 -20.98283 27.42558 31021 ft 489 kts 343°
2026-05-05 00:36 -20.91659 27.40791 31032 ft 489 kts 343°
2026-05-05 00:37 -20.85056 27.39032 31033 ft 489 kts 343°
2026-05-05 00:37 -20.78440 27.37270 31035 ft 489 kts 343°
2026-05-05 00:38 -20.71823 27.35507 31037 ft 490 kts 343°
2026-05-05 00:38 -20.65205 27.33748 31036 ft 490 kts 343°
2026-05-05 00:39 -20.59702 27.32287 31039 ft 490 kts 343°
2026-05-05 00:39 -20.53083 27.30530 31040 ft 490 kts 343°
2026-05-05 00:40 -20.45388 27.28490 31034 ft 490 kts 343°
2026-05-05 00:40 -20.39874 27.27028 31046 ft 491 kts 343°
2026-05-05 00:41 -20.32121 27.24977 31049 ft 491 kts 343°
2026-05-05 00:41 -20.26601 27.23518 31044 ft 491 kts 343°
2026-05-05 00:42 -20.19961 27.21765 31040 ft 491 kts 343°
2026-05-05 00:42 -20.13319 27.20011 31037 ft 492 kts 344°
2026-05-05 00:43 -20.06709 27.18270 31037 ft 492 kts 344°
2026-05-05 00:43 -20.00012 27.16513 31040 ft 492 kts 344°
2026-05-05 00:44 -19.93417 27.14775 31035 ft 492 kts 343°
2026-05-05 00:44 -19.86780 27.13022 31034 ft 492 kts 343°
2026-05-05 00:45 -19.80139 27.11272 31030 ft 492 kts 343°
2026-05-05 00:45 -19.73491 27.09523 31026 ft 492 kts 343°
2026-05-05 00:46 -19.66844 27.07776 31027 ft 492 kts 344°
2026-05-05 00:46 -19.60194 27.06031 31021 ft 492 kts 344°
2026-05-05 00:47 -19.53586 27.04297 31027 ft 492 kts 344°
2026-05-05 00:47 -19.46937 27.02557 31026 ft 492 kts 344°
2026-05-05 00:48 -19.40281 27.00815 31030 ft 492 kts 344°
2026-05-05 00:48 -19.33640 26.99076 31026 ft 492 kts 344°
2026-05-05 00:49 -19.26991 26.97339 31024 ft 492 kts 344°
2026-05-05 00:49 -19.20342 26.95606 31032 ft 492 kts 344°
2026-05-05 00:50 -19.13688 26.93874 31026 ft 492 kts 344°
2026-05-05 00:50 -19.07036 26.92141 31030 ft 492 kts 344°
2026-05-05 00:51 -19.00390 26.90408 31017 ft 492 kts 344°
2026-05-05 00:51 -18.93785 26.88689 31018 ft 492 kts 344°
2026-05-05 00:52 -18.87132 26.86959 31034 ft 492 kts 344°
2026-05-05 00:52 -18.80475 26.85231 31023 ft 492 kts 344°
2026-05-05 00:53 -18.73825 26.83507 31026 ft 492 kts 344°
2026-05-05 00:53 -18.67167 26.81783 31009 ft 492 kts 344°
2026-05-05 00:54 -18.60564 26.80075 31009 ft 492 kts 344°
2026-05-05 00:54 -18.53906 26.78348 31012 ft 492 kts 344°
2026-05-05 00:55 -18.47258 26.76625 31011 ft 492 kts 344°
2026-05-05 00:55 -18.40598 26.74902 31002 ft 492 kts 344°
2026-05-05 00:56 -18.33944 26.73184 31006 ft 492 kts 344°
2026-05-05 00:56 -18.27274 26.71463 31002 ft 492 kts 344°
2026-05-05 00:57 -18.20653 26.69756 31001 ft 493 kts 344°
2026-05-05 00:57 -18.13990 26.68041 30997 ft 492 kts 344°
2026-05-05 00:58 -18.07325 26.66325 31001 ft 493 kts 344°
2026-05-05 00:58 -18.00653 26.64607 31001 ft 493 kts 344°
2026-05-05 00:59 -17.93983 26.62889 31005 ft 493 kts 344°
2026-05-05 00:59 -17.87357 26.61185 31004 ft 493 kts 344°
2026-05-05 01:00 -17.80689 26.59472 31015 ft 494 kts 344°
2026-05-05 01:00 -17.74016 26.57761 31017 ft 494 kts 344°
2026-05-05 01:01 -17.67341 26.56052 31028 ft 494 kts 344°
2026-05-05 01:01 -17.60671 26.54345 31023 ft 494 kts 344°
2026-05-05 01:02 -17.53988 26.52634 31027 ft 494 kts 344°
2026-05-05 01:02 -17.47311 26.50926 31039 ft 494 kts 344°
2026-05-05 01:03 -17.40627 26.49220 31032 ft 494 kts 344°
2026-05-05 01:03 -17.33944 26.47516 31039 ft 494 kts 344°
2026-05-05 01:04 -17.27305 26.45824 31038 ft 494 kts 344°
2026-05-05 01:04 -17.17299 26.43199 31041 ft 494 kts 343°
2026-05-05 01:05 -17.10634 26.41387 31047 ft 494 kts 343°
2026-05-05 01:05 -17.03977 26.39587 31050 ft 494 kts 343°
2026-05-05 01:06 -16.97314 26.37792 31042 ft 494 kts 343°
2026-05-05 01:06 -16.90657 26.36002 31044 ft 494 kts 343°
2026-05-05 01:07 -16.83987 26.34210 31043 ft 494 kts 343°
2026-05-05 01:07 -16.77331 26.32420 31043 ft 494 kts 343°
2026-05-05 01:08 -16.70722 26.30622 31043 ft 494 kts 343°
2026-05-05 01:08 -16.64064 26.28812 31037 ft 494 kts 343°
2026-05-05 01:09 -16.57403 26.27004 31038 ft 495 kts 343°
2026-05-05 01:09 -16.50732 26.25197 31038 ft 495 kts 343°
2026-05-05 01:10 -16.44065 26.23394 31039 ft 495 kts 343°
2026-05-05 01:10 -16.37400 26.21591 31035 ft 495 kts 343°
2026-05-05 01:11 -16.30726 26.19787 31032 ft 495 kts 343°
2026-05-05 01:11 -16.24051 26.17984 31034 ft 495 kts 344°
2026-05-05 01:12 -16.17379 26.16184 31034 ft 495 kts 344°
2026-05-05 01:12 -16.10703 26.14384 31034 ft 495 kts 344°
2026-05-05 01:13 -16.04030 26.12586 31035 ft 495 kts 344°
2026-05-05 01:13 -15.97405 26.10801 31028 ft 495 kts 344°
2026-05-05 01:14 -15.90736 26.09007 31029 ft 495 kts 344°
2026-05-05 01:14 -15.84064 26.07214 31029 ft 495 kts 344°
2026-05-05 01:15 -15.77399 26.05423 31030 ft 495 kts 344°
2026-05-05 01:15 -15.70716 26.03628 31028 ft 495 kts 344°
2026-05-05 01:16 -15.64047 26.01838 31028 ft 494 kts 344°
2026-05-05 01:16 -15.57389 26.00054 31029 ft 494 kts 344°
2026-05-05 01:17 -15.50730 25.98271 31031 ft 494 kts 344°
2026-05-05 01:17 -15.44066 25.96489 31029 ft 494 kts 344°
2026-05-05 01:18 -15.37443 25.94717 31031 ft 494 kts 344°
2026-05-05 01:18 -15.30780 25.92934 31030 ft 495 kts 344°
2026-05-05 01:19 -15.24111 25.91152 31030 ft 495 kts 344°
2026-05-05 01:19 -15.17436 25.89372 31029 ft 495 kts 344°
2026-05-05 01:20 -15.10774 25.87597 31028 ft 495 kts 344°
2026-05-05 01:20 -15.04095 25.85818 31027 ft 495 kts 344°
2026-05-05 01:21 -14.97437 25.84047 31030 ft 495 kts 344°
2026-05-05 01:21 -14.90767 25.82274 31036 ft 495 kts 344°
2026-05-05 01:22 -14.84133 25.80512 31033 ft 495 kts 344°
2026-05-05 01:22 -14.77464 25.78741 31033 ft 495 kts 345°
2026-05-05 01:23 -14.70784 25.76967 31034 ft 496 kts 345°
2026-05-05 01:23 -14.64094 25.75194 31035 ft 496 kts 345°
2026-05-05 01:24 -14.57409 25.73423 31038 ft 496 kts 345°
2026-05-05 01:24 -14.50770 25.71665 31038 ft 496 kts 345°
2026-05-05 01:25 -14.43929 25.69852 31035 ft 496 kts 345°
2026-05-05 01:25 -14.37232 25.68081 31037 ft 497 kts 345°
2026-05-05 01:26 -14.30532 25.66311 31038 ft 497 kts 345°
2026-05-05 01:26 -14.23829 25.64541 31040 ft 497 kts 345°
2026-05-05 01:27 -14.17134 25.62775 31038 ft 496 kts 345°
2026-05-05 01:27 -14.10439 25.61007 31037 ft 497 kts 345°
2026-05-05 01:28 -14.03742 25.59241 31037 ft 497 kts 345°
2026-05-05 01:28 -13.97044 25.57476 31037 ft 497 kts 345°
2026-05-05 01:29 -13.90333 25.55709 31037 ft 497 kts 345°
2026-05-05 01:29 -13.83674 25.53956 31037 ft 497 kts 345°
2026-05-05 01:30 -13.76975 25.52195 31037 ft 497 kts 345°
2026-05-05 01:30 -13.70276 25.50434 31035 ft 497 kts 345°
2026-05-05 01:31 -13.63580 25.48675 31033 ft 497 kts 345°
2026-05-05 01:31 -13.58006 25.47213 31032 ft 497 kts 345°
2026-05-05 01:32 -13.51298 25.45453 31030 ft 497 kts 345°
2026-05-05 01:32 -13.44586 25.43695 31032 ft 497 kts 345°
2026-05-05 01:33 -13.37875 25.41934 31029 ft 497 kts 345°
2026-05-05 01:33 -13.31211 25.40185 31029 ft 497 kts 345°
2026-05-05 01:34 -13.24508 25.38430 31024 ft 497 kts 345°
2026-05-05 01:34 -13.17801 25.36675 31022 ft 497 kts 345°
2026-05-05 01:35 -13.11101 25.34924 31023 ft 497 kts 345°
2026-05-05 01:35 -13.04389 25.33172 31024 ft 497 kts 345°
2026-05-05 01:36 -12.97687 25.31423 31027 ft 497 kts 345°
2026-05-05 01:36 -12.90984 25.29674 31027 ft 497 kts 345°
2026-05-05 01:37 -12.84277 25.27924 31022 ft 497 kts 345°
2026-05-05 01:37 -12.77567 25.26176 31018 ft 497 kts 345°
2026-05-05 01:38 -12.70858 25.24430 31018 ft 497 kts 345°
2026-05-05 01:38 -12.64141 25.22682 31024 ft 497 kts 345°
2026-05-05 01:39 -12.57473 25.20947 31021 ft 497 kts 345°
2026-05-05 01:39 -12.50766 25.19203 31026 ft 497 kts 345°
2026-05-05 01:40 -12.44055 25.17460 31025 ft 497 kts 345°
2026-05-05 01:40 -12.37350 25.15719 31029 ft 497 kts 345°
2026-05-05 01:41 -12.30640 25.13979 31027 ft 497 kts 345°
2026-05-05 01:41 -12.23922 25.12238 31026 ft 497 kts 345°
2026-05-05 01:42 -12.17213 25.10500 31029 ft 498 kts 345°
2026-05-05 01:42 -12.10498 25.08755 31035 ft 498 kts 345°
2026-05-05 01:43 -12.03790 25.07014 31032 ft 498 kts 345°
2026-05-05 01:43 -11.97077 25.05275 31037 ft 498 kts 345°
2026-05-05 01:44 -11.90362 25.03537 31038 ft 497 kts 345°
2026-05-05 01:44 -11.83690 25.01811 31041 ft 497 kts 345°
2026-05-05 01:45 -11.76979 25.00076 31036 ft 497 kts 345°
2026-05-05 01:45 -11.70274 24.98344 31037 ft 497 kts 345°
2026-05-05 01:46 -11.63564 24.96613 31037 ft 497 kts 345°
2026-05-05 01:46 -11.56858 24.94884 31037 ft 497 kts 345°
2026-05-05 01:47 -11.50149 24.93152 31040 ft 497 kts 345°
2026-05-05 01:47 -11.43442 24.91415 31035 ft 497 kts 345°
2026-05-05 01:48 -11.36731 24.89680 31035 ft 497 kts 345°
2026-05-05 01:48 -11.30064 24.87959 31029 ft 497 kts 345°
2026-05-05 01:49 -11.23346 24.86226 31028 ft 498 kts 345°
2026-05-05 01:49 -11.16625 24.84494 31024 ft 498 kts 345°
2026-05-05 01:50 -11.09899 24.82761 31024 ft 498 kts 345°
2026-05-05 01:50 -11.03177 24.81031 31013 ft 498 kts 345°
2026-05-05 01:51 -10.96455 24.79301 31013 ft 498 kts 345°
2026-05-05 01:51 -10.89732 24.77571 31008 ft 498 kts 345°
2026-05-05 01:52 -10.83050 24.75853 31008 ft 498 kts 345°
2026-05-05 01:52 -10.76322 24.74124 30999 ft 498 kts 345°
2026-05-05 01:53 -10.69585 24.72394 30991 ft 498 kts 345°
2026-05-05 01:53 -10.62861 24.70668 30991 ft 498 kts 345°
2026-05-05 01:54 -10.56136 24.68942 30986 ft 498 kts 345°
2026-05-05 01:54 -10.49401 24.67214 30986 ft 498 kts 345°
2026-05-05 01:55 -10.42676 24.65490 30986 ft 498 kts 345°
2026-05-05 01:55 -10.35953 24.63768 30986 ft 498 kts 345°
2026-05-05 01:56 -10.29225 24.62045 30975 ft 499 kts 345°
2026-05-05 01:56 -10.22487 24.60320 30977 ft 499 kts 345°
2026-05-05 01:57 -10.15788 24.58607 30971 ft 499 kts 345°
2026-05-05 01:57 -10.09043 24.56883 30972 ft 499 kts 345°
2026-05-05 01:58 -10.02304 24.55162 30966 ft 499 kts 345°
2026-05-05 01:58 -9.95562 24.53436 30966 ft 500 kts 345°
2026-05-05 01:59 -9.88819 24.51711 30961 ft 500 kts 346°
2026-05-05 01:59 -9.82070 24.49989 30961 ft 500 kts 346°
2026-05-05 02:00 -9.75322 24.48270 30962 ft 500 kts 346°
2026-05-05 02:00 -9.68611 24.46560 30963 ft 500 kts 346°
2026-05-05 02:01 -9.61873 24.44843 30959 ft 500 kts 346°
2026-05-05 02:01 -9.55123 24.43124 30959 ft 499 kts 346°
2026-05-05 02:02 -9.48381 24.41409 30961 ft 499 kts 346°
2026-05-05 02:02 -9.41642 24.39696 30961 ft 499 kts 346°
2026-05-05 02:03 -9.34895 24.37982 30966 ft 500 kts 346°
2026-05-05 02:03 -9.28145 24.36267 30965 ft 500 kts 346°
2026-05-05 02:04 -9.21398 24.34554 30969 ft 500 kts 346°
2026-05-05 02:04 -9.14661 24.32785 30970 ft 500 kts 345°
2026-05-05 02:05 -9.07947 24.30962 30966 ft 500 kts 345°
2026-05-05 02:05 -9.01269 24.29154 30966 ft 500 kts 345°
2026-05-05 02:06 -8.94550 24.27341 30967 ft 500 kts 345°
2026-05-05 02:06 -8.87822 24.25530 30967 ft 500 kts 345°
2026-05-05 02:07 -8.81088 24.23720 30966 ft 500 kts 345°
2026-05-05 02:07 -8.74360 24.21911 30966 ft 500 kts 345°
2026-05-05 02:08 -8.67673 24.20115 30969 ft 500 kts 345°
2026-05-05 02:08 -8.60940 24.18306 30968 ft 500 kts 345°
2026-05-05 02:09 -8.54202 24.16497 30961 ft 501 kts 345°
2026-05-05 02:09 -8.47461 24.14688 30961 ft 501 kts 345°
2026-05-05 02:10 -8.40763 24.12891 30959 ft 501 kts 345°
2026-05-05 02:10 -8.34021 24.11083 30961 ft 501 kts 345°
2026-05-05 02:11 -8.27276 24.09275 30959 ft 502 kts 345°
2026-05-05 02:11 -8.20513 24.07463 30958 ft 503 kts 345°
2026-05-05 02:12 -8.10353 24.04747 30958 ft 503 kts 345°
2026-05-05 02:13 -8.03615 24.02960 30951 ft 503 kts 346°
2026-05-05 02:13 -7.96790 24.01369 30952 ft 503 kts 347°
2026-05-05 02:14 -7.89946 23.99795 30949 ft 504 kts 347°
2026-05-05 02:14 -7.83108 23.98224 30950 ft 504 kts 347°
2026-05-05 02:15 -7.76272 23.96653 30945 ft 504 kts 347°
2026-05-05 02:15 -7.69436 23.95083 30944 ft 504 kts 347°
2026-05-05 02:16 -7.62593 23.93512 30937 ft 504 kts 347°
2026-05-05 02:16 -7.55761 23.91944 30937 ft 504 kts 347°
2026-05-05 02:17 -7.48928 23.90376 30933 ft 504 kts 347°
2026-05-05 02:17 -7.42127 23.88816 30934 ft 504 kts 347°
2026-05-05 02:18 -7.35286 23.87249 30930 ft 504 kts 347°
2026-05-05 02:18 -7.28451 23.85684 30932 ft 504 kts 347°
2026-05-05 02:19 -7.21629 23.84065 30923 ft 504 kts 346°
2026-05-05 02:19 -7.15970 23.82632 30923 ft 504 kts 346°
2026-05-05 02:20 -7.09171 23.80908 30925 ft 504 kts 346°
2026-05-05 02:20 -7.02362 23.79194 30926 ft 504 kts 346°
2026-05-05 02:21 -6.95562 23.77487 30916 ft 504 kts 346°
2026-05-05 02:21 -6.88783 23.75788 30916 ft 504 kts 346°
2026-05-05 02:22 -6.81963 23.74080 30919 ft 504 kts 346°
2026-05-05 02:22 -6.75156 23.72375 30918 ft 504 kts 346°
2026-05-05 02:23 -6.68350 23.70671 30909 ft 504 kts 346°
2026-05-05 02:23 -6.61549 23.68969 30909 ft 504 kts 346°
2026-05-05 02:24 -6.54736 23.67264 30906 ft 504 kts 346°
2026-05-05 02:24 -6.47970 23.65572 30906 ft 504 kts 346°
2026-05-05 02:25 -6.41159 23.63869 30907 ft 504 kts 346°
2026-05-05 02:25 -6.34342 23.62166 30906 ft 504 kts 346°
2026-05-05 02:26 -6.27533 23.60465 30903 ft 504 kts 346°
2026-05-05 02:26 -6.20724 23.58767 30904 ft 504 kts 346°
2026-05-05 02:27 -6.13913 23.57068 30903 ft 504 kts 347°
2026-05-05 02:27 -6.07031 23.55699 30904 ft 504 kts 350°
2026-05-05 02:28 -6.00164 23.54507 30904 ft 504 kts 350°
2026-05-05 02:28 -5.93252 23.53312 30901 ft 504 kts 350°
2026-05-05 02:29 -5.86345 23.52118 30904 ft 503 kts 350°
2026-05-05 02:29 -5.79440 23.50923 30904 ft 503 kts 350°
2026-05-05 02:30 -5.72537 23.49729 30898 ft 503 kts 350°
2026-05-05 02:30 -5.65636 23.48536 30903 ft 503 kts 350°
2026-05-05 02:31 -5.58727 23.47343 30901 ft 503 kts 350°
2026-05-05 02:31 -5.51876 23.46160 30901 ft 503 kts 350°
2026-05-05 02:32 -5.44975 23.44977 30900 ft 503 kts 350°
2026-05-05 02:32 -5.38064 23.43797 30901 ft 503 kts 350°
2026-05-05 02:33 -5.31162 23.42620 30903 ft 503 kts 350°
2026-05-05 02:33 -5.24266 23.41444 30901 ft 502 kts 350°
2026-05-05 02:34 -5.22382 23.41123 30901 ft 502 kts 350°
2026-05-05 02:36 -5.19223 23.40584 30901 ft 503 kts 351°
2026-05-05 02:36 -5.12329 23.39409 30898 ft 503 kts 350°
2026-05-05 02:37 -5.05477 23.38235 30898 ft 503 kts 350°
2026-05-05 02:37 -4.98583 23.37055 30898 ft 503 kts 350°
2026-05-05 02:38 -4.91684 23.35877 30898 ft 503 kts 351°
2026-05-05 02:38 -4.84787 23.34698 30898 ft 503 kts 351°
2026-05-05 02:39 -4.77877 23.33520 30898 ft 503 kts 351°
2026-05-05 02:39 -4.70972 23.32345 30898 ft 503 kts 351°
2026-05-05 02:40 -4.64061 23.31167 30898 ft 503 kts 351°
2026-05-05 02:40 -4.57200 23.29998 30898 ft 503 kts 351°
2026-05-05 02:41 -4.50293 23.28820 30898 ft 504 kts 351°
2026-05-05 02:41 -4.43374 23.27643 30898 ft 504 kts 351°
2026-05-05 02:42 -4.36452 23.26465 30898 ft 504 kts 351°
2026-05-05 02:42 -4.29534 23.25289 30898 ft 504 kts 351°
2026-05-05 02:43 -4.22615 23.24113 30895 ft 504 kts 351°
2026-05-05 02:43 -4.15702 23.22938 30898 ft 504 kts 351°
2026-05-05 02:44 -4.08820 23.21507 30898 ft 505 kts 345°
2026-05-05 02:44 -4.02207 23.19275 30900 ft 505 kts 338°
2026-05-05 02:45 -3.95828 23.16198 30901 ft 506 kts 332°
2026-05-05 02:45 -3.89680 23.12748 30901 ft 506 kts 331°
2026-05-05 02:46 -3.83581 23.09306 30901 ft 506 kts 331°
2026-05-05 02:46 -3.77434 23.05843 30901 ft 506 kts 331°
2026-05-05 02:47 -3.71291 23.02386 30901 ft 506 kts 331°
2026-05-05 02:47 -3.65154 22.98934 30901 ft 506 kts 331°
2026-05-05 02:48 -3.59006 22.95476 30901 ft 506 kts 331°
2026-05-05 02:48 -3.52863 22.92023 30901 ft 506 kts 331°
2026-05-05 02:49 -3.46717 22.88568 30898 ft 507 kts 332°
2026-05-05 02:49 -3.40561 22.85112 30898 ft 507 kts 332°
2026-05-05 02:50 -3.34445 22.81678 30897 ft 507 kts 332°
2026-05-05 02:50 -3.28277 22.78236 30899 ft 507 kts 332°
2026-05-05 02:51 -3.22100 22.74799 30901 ft 508 kts 332°
2026-05-05 02:51 -3.15920 22.71357 30900 ft 508 kts 332°
2026-05-05 02:52 -3.09735 22.67911 30896 ft 509 kts 332°
2026-05-05 02:52 -3.03536 22.64463 30897 ft 509 kts 332°
2026-05-05 02:53 -2.97342 22.61017 30898 ft 509 kts 332°
2026-05-05 02:53 -2.91146 22.57570 30898 ft 509 kts 332°
2026-05-05 02:54 -2.84984 22.54142 30901 ft 509 kts 332°
2026-05-05 02:54 -2.78782 22.50691 30901 ft 510 kts 332°
2026-05-05 02:55 -2.72579 22.47242 30901 ft 510 kts 332°
2026-05-05 02:55 -2.66372 22.43794 30898 ft 509 kts 332°
2026-05-05 02:56 -2.60179 22.40350 30896 ft 509 kts 332°
2026-05-05 02:56 -2.53981 22.36903 30893 ft 509 kts 332°
2026-05-05 02:57 -2.47779 22.33455 30893 ft 509 kts 332°
2026-05-05 02:57 -2.41580 22.30008 30898 ft 510 kts 332°
2026-05-05 02:58 -2.35370 22.26557 30891 ft 510 kts 332°
2026-05-05 02:58 -2.29164 22.23108 30892 ft 510 kts 332°
2026-05-05 02:59 -2.22999 22.19683 30890 ft 510 kts 332°
2026-05-05 02:59 -2.16790 22.16233 30890 ft 510 kts 332°
2026-05-05 03:00 -2.10585 22.12786 30892 ft 510 kts 332°
2026-05-05 03:00 -2.04380 22.09339 30890 ft 510 kts 332°
2026-05-05 03:01 -1.98174 22.05892 30889 ft 510 kts 332°
2026-05-05 03:01 -1.91962 22.02442 30887 ft 510 kts 332°
2026-05-05 03:02 -1.85751 21.98993 30887 ft 510 kts 332°
2026-05-05 03:02 -1.79549 21.95549 30885 ft 510 kts 332°
2026-05-05 03:03 -1.73336 21.92099 30888 ft 511 kts 332°
2026-05-05 03:03 -1.67152 21.88667 30887 ft 511 kts 332°
2026-05-05 03:04 -1.60933 21.85215 30885 ft 511 kts 332°
2026-05-05 03:04 -1.54718 21.81766 30882 ft 511 kts 332°
2026-05-05 03:05 -1.48500 21.78316 30883 ft 510 kts 332°
2026-05-05 03:05 -1.42295 21.74874 30884 ft 510 kts 332°
2026-05-05 03:06 -1.36077 21.71427 30882 ft 510 kts 332°
2026-05-05 03:06 -1.30917 21.68563 30881 ft 511 kts 332°
2026-05-05 03:07 -1.24704 21.65108 30884 ft 511 kts 332°
2026-05-05 03:07 -1.18495 21.61658 30884 ft 511 kts 332°
2026-05-05 03:08 -1.11272 21.57648 30882 ft 511 kts 332°
2026-05-05 03:08 -1.06067 21.54760 30880 ft 511 kts 332°
2026-05-05 03:09 -0.99860 21.51316 30881 ft 510 kts 332°
2026-05-05 03:09 -0.93653 21.47873 30881 ft 510 kts 332°
2026-05-05 03:10 -0.87449 21.44432 30883 ft 510 kts 332°
2026-05-05 03:10 -0.81279 21.41010 30881 ft 510 kts 332°
2026-05-05 03:11 -0.75076 21.37569 30884 ft 510 kts 332°
2026-05-05 03:11 -0.68863 21.34122 30885 ft 510 kts 332°
2026-05-05 03:12 -0.62639 21.30671 30884 ft 510 kts 332°
2026-05-05 03:12 -0.56423 21.27224 30884 ft 510 kts 332°
2026-05-05 03:13 -0.50254 21.23804 30887 ft 510 kts 332°
2026-05-05 03:13 -0.44043 21.20360 30887 ft 510 kts 332°
2026-05-05 03:14 -0.37830 21.16915 30879 ft 510 kts 332°
2026-05-05 03:14 -0.31612 21.13469 30882 ft 510 kts 332°
2026-05-05 03:15 -0.25404 21.10030 30882 ft 510 kts 332°
2026-05-05 03:15 -0.19218 21.06601 30881 ft 510 kts 332°
2026-05-05 03:16 -0.13011 21.03149 30882 ft 510 kts 332°
2026-05-05 03:16 -0.06805 20.99699 30882 ft 510 kts 332°
2026-05-05 03:17 -0.00595 20.96251 30888 ft 510 kts 332°
2026-05-05 03:17 0.05608 20.92806 30881 ft 510 kts 332°
2026-05-05 03:18 0.11810 20.89364 30884 ft 510 kts 332°
2026-05-05 03:18 0.18016 20.85920 30884 ft 510 kts 332°
2026-05-05 03:19 0.27320 20.80757 30885 ft 510 kts 332°
2026-05-05 03:19 0.33526 20.77314 30884 ft 510 kts 332°
2026-05-05 03:20 0.39740 20.73865 30883 ft 510 kts 332°
2026-05-05 03:20 0.45907 20.70443 30882 ft 510 kts 332°
2026-05-05 03:21 0.52129 20.66992 30881 ft 510 kts 332°
2026-05-05 03:21 0.58349 20.63543 30881 ft 510 kts 332°
2026-05-05 03:22 0.64563 20.60093 30885 ft 511 kts 332°
2026-05-05 03:22 0.70778 20.56636 30884 ft 511 kts 332°
2026-05-05 03:23 0.76951 20.53207 30886 ft 511 kts 332°
2026-05-05 03:23 0.83164 20.49757 30885 ft 511 kts 332°
2026-05-05 03:24 0.89386 20.46305 30881 ft 511 kts 332°
2026-05-05 03:24 0.95611 20.42851 30882 ft 511 kts 332°
2026-05-05 03:25 1.01832 20.39398 30878 ft 511 kts 332°
2026-05-05 03:25 1.08057 20.35943 30881 ft 511 kts 332°
2026-05-05 03:26 1.14249 20.32506 30879 ft 512 kts 332°
2026-05-05 03:26 1.20488 20.29044 30879 ft 513 kts 332°
2026-05-05 03:27 1.26724 20.25584 30879 ft 513 kts 332°
2026-05-05 03:27 1.32962 20.22124 30879 ft 513 kts 332°
2026-05-05 03:28 1.39201 20.18664 30879 ft 513 kts 332°
2026-05-05 03:28 1.45442 20.15198 30879 ft 513 kts 332°
2026-05-05 03:29 1.51683 20.11732 30878 ft 513 kts 332°
2026-05-05 03:29 1.57933 20.08265 30873 ft 513 kts 332°
2026-05-05 03:30 1.64185 20.04799 30874 ft 513 kts 332°
2026-05-05 03:30 1.70438 20.01333 30873 ft 513 kts 332°
2026-05-05 03:31 1.76688 19.97870 30873 ft 513 kts 332°
2026-05-05 03:31 1.82932 19.94407 30871 ft 512 kts 332°
2026-05-05 03:32 1.89116 19.90975 30873 ft 511 kts 332°
2026-05-05 03:32 1.95346 19.87523 30873 ft 511 kts 332°
2026-05-05 03:33 2.01557 19.84084 30876 ft 511 kts 332°
2026-05-05 03:33 2.07779 19.80639 30876 ft 511 kts 332°
2026-05-05 03:34 2.14002 19.77196 30873 ft 511 kts 332°
2026-05-05 03:34 2.20227 19.73750 30873 ft 512 kts 332°
2026-05-05 03:35 2.26457 19.70300 30873 ft 512 kts 332°
2026-05-05 03:35 2.32679 19.66831 30875 ft 512 kts 332°
2026-05-05 03:36 2.38901 19.63352 30873 ft 512 kts 332°
2026-05-05 03:36 2.45087 19.59900 30879 ft 512 kts 332°
2026-05-05 03:37 2.51312 19.56427 30877 ft 512 kts 332°
2026-05-05 03:37 2.57548 19.52952 30877 ft 512 kts 332°
2026-05-05 03:38 2.63775 19.49478 30876 ft 513 kts 332°
2026-05-05 03:38 2.70009 19.45997 30874 ft 513 kts 332°
2026-05-05 03:39 2.76242 19.42521 30875 ft 513 kts 332°
2026-05-05 03:39 2.82483 19.39042 30876 ft 513 kts 332°
2026-05-05 03:40 2.88722 19.35565 30879 ft 513 kts 332°
2026-05-05 03:40 2.94952 19.32093 30878 ft 513 kts 332°
2026-05-05 03:41 3.01188 19.28618 30877 ft 513 kts 332°
2026-05-05 03:41 3.07426 19.25141 30871 ft 513 kts 332°
2026-05-05 03:42 3.13617 19.21691 30871 ft 513 kts 332°
2026-05-05 03:42 3.19860 19.18211 30873 ft 513 kts 332°
2026-05-05 03:43 3.26104 19.14730 30874 ft 513 kts 332°
2026-05-05 03:43 3.32343 19.11252 30873 ft 513 kts 332°
2026-05-05 03:44 3.38584 19.07774 30873 ft 513 kts 332°
2026-05-05 03:44 3.44795 19.04312 30873 ft 513 kts 332°
2026-05-05 03:45 3.51045 19.00827 30873 ft 513 kts 332°
2026-05-05 03:45 3.57286 18.97355 30877 ft 513 kts 332°
2026-05-05 03:46 3.63548 18.93880 30874 ft 513 kts 332°
2026-05-05 03:46 3.69758 18.90436 30873 ft 513 kts 332°
2026-05-05 03:47 3.76005 18.86973 30871 ft 513 kts 332°
2026-05-05 03:47 3.82245 18.83512 30871 ft 513 kts 332°
2026-05-05 03:48 3.88496 18.80046 30871 ft 513 kts 332°
2026-05-05 03:48 3.94736 18.76587 30871 ft 513 kts 332°
2026-05-05 03:49 4.00979 18.73123 30868 ft 513 kts 332°
2026-05-05 03:49 4.07212 18.69628 30875 ft 512 kts 331°
2026-05-05 03:50 4.13436 18.66137 30874 ft 512 kts 331°
2026-05-05 03:50 4.19632 18.62667 30874 ft 512 kts 331°
2026-05-05 03:51 4.25862 18.59181 30919 ft 512 kts 331°
2026-05-05 03:51 4.32090 18.55696 30934 ft 512 kts 331°
2026-05-05 03:52 4.38368 18.52303 30933 ft 512 kts 334°
2026-05-05 03:52 4.44860 18.49352 30933 ft 511 kts 336°
2026-05-05 03:53 4.51371 18.46482 30925 ft 511 kts 337°
2026-05-05 03:53 4.57888 18.43610 30908 ft 511 kts 337°
2026-05-05 03:54 4.64404 18.40734 30891 ft 512 kts 336°
2026-05-05 03:54 4.70920 18.37856 30875 ft 512 kts 336°
2026-05-05 03:55 4.77431 18.34979 30873 ft 511 kts 336°
2026-05-05 03:55 4.82831 18.32593 30876 ft 510 kts 336°
2026-05-05 03:56 4.90391 18.29252 30876 ft 510 kts 336°
2026-05-05 03:56 4.96893 18.26379 30876 ft 510 kts 336°
2026-05-05 03:57 5.02340 18.23972 30876 ft 510 kts 336°
2026-05-05 03:57 5.08840 18.21101 30876 ft 510 kts 336°
2026-05-05 03:58 5.15295 18.18248 30879 ft 510 kts 336°
2026-05-05 03:58 5.21792 18.15369 30881 ft 510 kts 336°
2026-05-05 03:59 5.28287 18.12490 30884 ft 510 kts 336°
2026-05-05 03:59 5.34775 18.09619 30885 ft 510 kts 336°
2026-05-05 04:00 5.41229 18.06763 30884 ft 510 kts 336°
2026-05-05 04:00 5.47725 18.03888 30885 ft 508 kts 336°
2026-05-05 04:01 5.54201 18.01023 30885 ft 508 kts 336°
2026-05-05 04:01 5.60677 17.98157 30884 ft 508 kts 336°
2026-05-05 04:02 5.67153 17.95290 30879 ft 508 kts 336°
2026-05-05 04:02 5.73622 17.92425 30879 ft 508 kts 336°
2026-05-05 04:03 5.80088 17.89560 30878 ft 508 kts 336°
2026-05-05 04:03 5.86509 17.86717 30879 ft 507 kts 336°
2026-05-05 04:04 5.92969 17.83854 30876 ft 507 kts 336°
2026-05-05 04:04 5.99435 17.80987 30873 ft 507 kts 336°
2026-05-05 04:05 6.05906 17.78118 30873 ft 507 kts 336°
2026-05-05 04:05 6.12374 17.75248 30868 ft 507 kts 336°
2026-05-05 04:06 6.18837 17.72387 30868 ft 507 kts 336°
2026-05-05 04:06 6.25249 17.69541 30865 ft 506 kts 336°
2026-05-05 04:07 6.31692 17.66678 30865 ft 506 kts 336°
2026-05-05 04:07 6.38141 17.63815 30860 ft 506 kts 336°
2026-05-05 04:08 6.44589 17.60952 30859 ft 507 kts 336°
2026-05-05 04:08 6.51042 17.58087 30862 ft 506 kts 336°
2026-05-05 04:09 6.57494 17.55223 30858 ft 507 kts 336°
2026-05-05 04:09 6.63963 17.52352 30859 ft 507 kts 336°
2026-05-05 04:10 6.70421 17.49476 30860 ft 508 kts 336°
2026-05-05 04:10 6.76846 17.46610 30863 ft 507 kts 336°
2026-05-05 04:11 6.83309 17.43728 30858 ft 508 kts 336°
2026-05-05 04:11 6.89774 17.40849 30857 ft 507 kts 336°
2026-05-05 04:12 6.96236 17.37969 30860 ft 507 kts 336°
2026-05-05 04:12 7.02693 17.35093 30854 ft 506 kts 336°
2026-05-05 04:13 7.09143 17.32219 30859 ft 507 kts 336°
2026-05-05 04:13 7.15591 17.29347 30860 ft 506 kts 336°
2026-05-05 04:14 7.21999 17.26492 30860 ft 507 kts 336°
2026-05-05 04:14 7.28455 17.23614 30853 ft 507 kts 336°
2026-05-05 04:15 7.34917 17.20729 30857 ft 507 kts 336°
2026-05-05 04:15 7.41381 17.17847 30848 ft 507 kts 336°
2026-05-05 04:16 7.47836 17.14971 30848 ft 507 kts 336°
2026-05-05 04:16 7.54297 17.12095 30848 ft 507 kts 336°
2026-05-05 04:17 7.60756 17.09216 30851 ft 508 kts 336°
2026-05-05 04:17 7.67211 17.06330 30851 ft 507 kts 336°
2026-05-05 04:18 7.73634 17.03453 30849 ft 507 kts 336°
2026-05-05 04:18 7.80083 17.00569 30848 ft 507 kts 336°
2026-05-05 04:19 7.86539 16.97685 30846 ft 507 kts 336°
2026-05-05 04:19 7.92995 16.94801 30846 ft 507 kts 336°
2026-05-05 04:20 7.99451 16.91914 30850 ft 507 kts 335°
2026-05-05 04:20 8.05878 16.89035 30843 ft 509 kts 335°
2026-05-05 04:21 8.12360 16.86123 30843 ft 510 kts 335°
2026-05-05 04:21 8.18852 16.83212 30840 ft 510 kts 335°
2026-05-05 04:22 8.25340 16.80302 30841 ft 510 kts 335°
2026-05-05 04:22 8.31826 16.77395 30840 ft 510 kts 335°
2026-05-05 04:23 8.38318 16.74484 30840 ft 508 kts 335°
2026-05-05 04:23 8.44776 16.71589 30835 ft 507 kts 335°
2026-05-05 04:24 8.51189 16.68711 30837 ft 506 kts 335°
2026-05-05 04:25 8.60847 16.64374 30833 ft 505 kts 335°
2026-05-05 04:25 8.67275 16.61486 30835 ft 505 kts 335°
2026-05-05 04:26 8.73708 16.58595 30829 ft 506 kts 335°
2026-05-05 04:26 8.80114 16.55716 30832 ft 506 kts 335°
2026-05-05 04:27 8.86559 16.52817 30827 ft 506 kts 335°
2026-05-05 04:27 8.93019 16.49911 30826 ft 507 kts 335°
2026-05-05 04:28 8.99461 16.47013 30830 ft 506 kts 335°
2026-05-05 04:28 9.05864 16.44131 30824 ft 506 kts 335°
2026-05-05 04:29 9.12301 16.41235 30825 ft 506 kts 335°
2026-05-05 04:29 9.18732 16.38338 30819 ft 506 kts 335°
2026-05-05 04:30 9.25168 16.35437 30818 ft 506 kts 335°
2026-05-05 04:30 9.31596 16.32539 30817 ft 506 kts 335°
2026-05-05 04:31 9.38030 16.29642 30816 ft 506 kts 335°
2026-05-05 04:31 9.44426 16.26757 30816 ft 506 kts 335°
2026-05-05 04:32 9.50855 16.23847 30813 ft 505 kts 335°
2026-05-05 04:32 9.57283 16.20940 30813 ft 505 kts 335°
2026-05-05 04:33 9.63703 16.18037 30814 ft 505 kts 335°
2026-05-05 04:33 9.70126 16.15134 30815 ft 505 kts 335°
2026-05-05 04:34 9.76553 16.12228 30814 ft 505 kts 335°
2026-05-05 04:34 9.82937 16.09341 30813 ft 505 kts 335°
2026-05-05 04:35 9.89374 16.06429 30813 ft 506 kts 334°
2026-05-05 04:35 9.95809 16.03515 30813 ft 506 kts 334°
2026-05-05 04:36 10.02246 16.00600 30813 ft 506 kts 334°
2026-05-05 04:36 10.08680 15.97685 30807 ft 505 kts 335°
2026-05-05 04:37 10.15106 15.94775 30811 ft 505 kts 335°
2026-05-05 04:37 10.21526 15.91869 30811 ft 505 kts 335°
2026-05-05 04:38 10.27947 15.88955 30810 ft 505 kts 334°
2026-05-05 04:38 10.34332 15.86047 30808 ft 505 kts 334°
2026-05-05 04:39 10.40745 15.83128 30810 ft 505 kts 334°
2026-05-05 04:39 10.47167 15.80208 30810 ft 505 kts 334°
2026-05-05 04:40 10.53594 15.77285 30810 ft 505 kts 334°
2026-05-05 04:40 10.60013 15.74365 30810 ft 505 kts 334°
2026-05-05 04:41 10.66432 15.71443 30810 ft 505 kts 334°
2026-05-05 04:41 10.72817 15.68536 30810 ft 505 kts 334°
2026-05-05 04:42 10.79238 15.65612 30814 ft 505 kts 334°
2026-05-05 04:42 10.85665 15.62683 30815 ft 504 kts 334°
2026-05-05 04:43 10.92052 15.59772 30820 ft 502 kts 334°
2026-05-05 04:43 10.98418 15.56867 30814 ft 501 kts 334°
2026-05-05 04:44 11.03708 15.54453 30811 ft 501 kts 334°
2026-05-05 04:44 11.10065 15.51550 30810 ft 501 kts 334°
2026-05-05 04:45 11.16430 15.48643 30807 ft 501 kts 334°
2026-05-05 04:45 11.22789 15.45737 30805 ft 501 kts 334°
2026-05-05 04:46 11.29153 15.42829 30800 ft 501 kts 334°
2026-05-05 04:46 11.35530 15.39912 30801 ft 503 kts 334°
2026-05-05 04:47 11.41911 15.36991 30805 ft 502 kts 334°
2026-05-05 04:47 11.48254 15.34086 30799 ft 502 kts 334°
2026-05-05 04:48 11.54637 15.31162 30800 ft 502 kts 334°
2026-05-05 04:48 11.61017 15.28238 30800 ft 502 kts 334°
2026-05-05 04:49 11.67380 15.25321 30796 ft 499 kts 334°
2026-05-05 04:49 11.73710 15.22417 30796 ft 499 kts 334°
2026-05-05 04:50 11.80043 15.19511 30796 ft 499 kts 334°
2026-05-05 04:50 11.86374 15.16604 30796 ft 499 kts 334°
2026-05-05 04:51 11.92660 15.13717 30800 ft 499 kts 334°
2026-05-05 04:51 11.98996 15.10807 30797 ft 498 kts 334°
2026-05-05 04:52 12.05323 15.07901 30797 ft 499 kts 334°
2026-05-05 04:52 12.11655 15.04989 30797 ft 499 kts 334°
2026-05-05 04:53 12.17889 15.01880 30797 ft 498 kts 331°
2026-05-05 04:53 12.24059 14.98631 30799 ft 498 kts 331°
2026-05-05 04:54 12.30220 14.95383 30800 ft 498 kts 331°
2026-05-05 04:54 12.36387 14.92135 30803 ft 498 kts 331°
2026-05-05 04:55 12.42539 14.88897 30802 ft 497 kts 331°
2026-05-05 04:55 12.48691 14.85657 30803 ft 497 kts 331°
2026-05-05 04:56 12.54802 14.82436 30798 ft 497 kts 331°
2026-05-05 04:56 12.60946 14.79198 30799 ft 497 kts 331°
2026-05-05 04:57 12.67100 14.75952 30797 ft 497 kts 331°
2026-05-05 04:57 12.73247 14.72709 30801 ft 496 kts 331°
2026-05-05 04:58 12.79389 14.69468 30800 ft 495 kts 331°
2026-05-05 04:58 12.85486 14.66245 30799 ft 495 kts 331°
2026-05-05 04:59 12.91619 14.63003 30799 ft 495 kts 331°
2026-05-05 04:59 12.97741 14.59765 30797 ft 495 kts 331°
2026-05-05 05:00 13.03824 14.56546 30794 ft 495 kts 331°
2026-05-05 05:00 13.09951 14.53303 30800 ft 495 kts 330°
2026-05-05 05:01 13.16066 14.50065 30798 ft 494 kts 330°
2026-05-05 05:01 13.22176 14.46825 30797 ft 494 kts 330°
2026-05-05 05:02 13.28288 14.43582 30797 ft 494 kts 330°
2026-05-05 05:02 13.34398 14.40340 30797 ft 494 kts 330°
2026-05-05 05:03 13.40512 14.37094 30798 ft 494 kts 330°
2026-05-05 05:03 13.46593 14.33865 30802 ft 493 kts 330°
2026-05-05 05:04 13.52689 14.30625 30798 ft 492 kts 330°
2026-05-05 05:04 13.58777 14.27387 30797 ft 492 kts 330°
2026-05-05 05:05 13.64863 14.24148 30797 ft 492 kts 330°
2026-05-05 05:05 13.70951 14.20908 30793 ft 492 kts 330°
2026-05-05 05:06 13.77031 14.17670 30797 ft 491 kts 330°
2026-05-05 05:06 13.83109 14.14435 30798 ft 490 kts 330°
2026-05-05 05:07 13.89138 14.11222 30796 ft 490 kts 330°
2026-05-05 05:07 13.95186 14.07989 30796 ft 490 kts 330°
2026-05-05 05:08 14.01244 14.04747 30796 ft 490 kts 330°
2026-05-05 05:08 14.07296 14.01511 30798 ft 490 kts 330°
2026-05-05 05:09 14.13349 13.98275 30803 ft 490 kts 330°
2026-05-05 05:09 14.19401 13.95039 30800 ft 490 kts 330°
2026-05-05 05:10 14.25422 13.91819 30806 ft 490 kts 330°
2026-05-05 05:10 14.31471 13.88583 30803 ft 490 kts 330°
2026-05-05 05:11 14.37527 13.85334 30806 ft 490 kts 330°
2026-05-05 05:11 14.43577 13.82079 30807 ft 490 kts 330°
2026-05-05 05:12 14.49624 13.78829 30803 ft 490 kts 330°
2026-05-05 05:12 14.55671 13.75580 30816 ft 489 kts 330°
2026-05-05 05:13 14.61711 13.72334 30818 ft 489 kts 330°
2026-05-05 05:13 14.67754 13.69084 30820 ft 489 kts 330°
2026-05-05 05:14 14.73755 13.65855 30818 ft 489 kts 330°
2026-05-05 05:14 14.79790 13.62606 30823 ft 489 kts 330°
2026-05-05 05:15 14.85830 13.59352 30821 ft 489 kts 330°
2026-05-05 05:15 14.91868 13.56097 30823 ft 489 kts 330°
2026-05-05 05:16 14.97906 13.52840 30834 ft 489 kts 330°
2026-05-05 05:16 15.03941 13.49582 30830 ft 489 kts 330°
2026-05-05 05:17 15.09968 13.46326 30832 ft 488 kts 330°
2026-05-05 05:17 15.15955 13.43091 30832 ft 488 kts 330°
2026-05-05 05:18 15.21981 13.39833 30832 ft 488 kts 330°
2026-05-05 05:18 15.28007 13.36572 30836 ft 488 kts 330°
2026-05-05 05:19 15.34040 13.33304 30832 ft 488 kts 330°
2026-05-05 05:19 15.40065 13.30040 30835 ft 489 kts 330°
2026-05-05 05:20 15.46092 13.26772 30834 ft 489 kts 330°
2026-05-05 05:20 15.52117 13.23504 30835 ft 489 kts 330°
2026-05-05 05:21 15.58148 13.20230 30838 ft 488 kts 330°
2026-05-05 05:21 15.64127 13.16983 30840 ft 488 kts 330°
2026-05-05 05:22 15.70144 13.13713 30842 ft 488 kts 330°
2026-05-05 05:22 15.76163 13.10440 30840 ft 487 kts 330°
2026-05-05 05:23 15.82176 13.07171 30842 ft 487 kts 330°
2026-05-05 05:23 15.88183 13.03902 30841 ft 487 kts 330°
2026-05-05 05:24 15.94088 13.00549 30842 ft 486 kts 327°
2026-05-05 05:24 15.99689 12.96638 30845 ft 483 kts 321°
2026-05-05 05:25 16.04857 12.92198 30844 ft 481 kts 316°
2026-05-05 05:25 16.09703 12.87372 30843 ft 481 kts 314°
2026-05-05 05:26 16.14506 12.82519 30842 ft 481 kts 314°
2026-05-05 05:26 16.19306 12.77664 30843 ft 481 kts 314°
2026-05-05 05:27 16.24073 12.72841 30836 ft 481 kts 314°
2026-05-05 05:27 16.31284 12.65542 30837 ft 481 kts 314°
2026-05-05 05:28 16.36077 12.60684 30840 ft 480 kts 315°
2026-05-05 05:28 16.40873 12.55823 30839 ft 480 kts 315°
2026-05-05 05:29 16.45661 12.50965 30840 ft 480 kts 315°
2026-05-05 05:29 16.50459 12.46094 30841 ft 480 kts 315°
2026-05-05 05:30 16.55250 12.41226 30838 ft 480 kts 314°
2026-05-05 05:30 16.60011 12.36385 30835 ft 481 kts 315°
2026-05-05 05:31 16.64802 12.31510 30837 ft 481 kts 315°
2026-05-05 05:31 16.69589 12.26636 30844 ft 480 kts 315°
2026-05-05 05:32 16.74367 12.21767 30842 ft 479 kts 315°
2026-05-05 05:32 16.78334 12.17725 30836 ft 479 kts 315°
2026-05-05 05:33 16.83108 12.12858 30837 ft 479 kts 315°
2026-05-05 05:33 16.87894 12.07975 30837 ft 479 kts 315°
2026-05-05 05:34 16.92636 12.03131 30837 ft 479 kts 315°
2026-05-05 05:34 16.97399 11.98249 30837 ft 480 kts 315°
2026-05-05 05:35 17.02164 11.93365 30835 ft 480 kts 315°
2026-05-05 05:35 17.06929 11.88480 30843 ft 479 kts 315°
2026-05-05 05:36 17.11692 11.83600 30839 ft 479 kts 315°
2026-05-05 05:36 17.16460 11.78713 30837 ft 479 kts 315°
2026-05-05 05:37 17.21222 11.73828 30840 ft 479 kts 315°
2026-05-05 05:37 17.25980 11.68943 30841 ft 479 kts 315°
2026-05-05 05:38 17.30709 11.64084 30838 ft 479 kts 315°
2026-05-05 05:38 17.35470 11.59190 30840 ft 479 kts 315°
2026-05-05 05:39 17.40323 11.54398 30841 ft 479 kts 319°
2026-05-05 05:39 17.45650 11.50195 30841 ft 479 kts 326°
2026-05-05 05:40 17.51429 11.46698 30841 ft 480 kts 332°
2026-05-05 05:40 17.57500 11.43740 30843 ft 481 kts 334°
2026-05-05 05:41 17.63590 11.40841 30841 ft 481 kts 334°
2026-05-05 05:41 17.69654 11.37954 30843 ft 481 kts 334°
2026-05-05 05:42 17.75746 11.35049 30842 ft 481 kts 334°
2026-05-05 05:42 17.81848 11.32137 30843 ft 481 kts 334°
2026-05-05 05:43 17.87936 11.29228 30844 ft 481 kts 334°
2026-05-05 05:43 17.94028 11.26315 30846 ft 480 kts 334°
2026-05-05 05:44 18.00108 11.23406 30845 ft 480 kts 334°
2026-05-05 05:44 18.06165 11.20506 30846 ft 480 kts 334°
2026-05-05 05:45 18.12248 11.17588 30857 ft 480 kts 334°
2026-05-05 05:45 18.18327 11.14671 30851 ft 479 kts 334°
2026-05-05 05:46 18.24395 11.11757 30852 ft 479 kts 334°
2026-05-05 05:46 18.30465 11.08843 30851 ft 479 kts 334°
2026-05-05 05:47 18.36494 11.05947 30852 ft 479 kts 334°
2026-05-05 05:47 18.42567 11.03029 30857 ft 479 kts 334°
2026-05-05 05:48 18.48633 11.00110 30861 ft 478 kts 334°
2026-05-05 05:48 18.54679 10.97187 30861 ft 478 kts 334°
2026-05-05 05:49 18.60730 10.94262 30858 ft 478 kts 334°
2026-05-05 05:49 18.66781 10.91338 30865 ft 478 kts 334°
2026-05-05 05:50 18.72830 10.88414 30867 ft 478 kts 334°
2026-05-05 05:50 18.78884 10.85486 30865 ft 478 kts 334°
2026-05-05 05:51 18.84889 10.82582 30874 ft 477 kts 334°
2026-05-05 05:51 18.90932 10.79654 30871 ft 477 kts 334°
2026-05-05 05:52 18.96965 10.76729 30871 ft 477 kts 334°
2026-05-05 05:52 19.03002 10.73800 30871 ft 477 kts 334°
2026-05-05 05:53 19.09035 10.70871 30870 ft 477 kts 334°
2026-05-05 05:53 19.15074 10.67936 30891 ft 477 kts 333°
2026-05-05 05:54 19.21097 10.65010 30879 ft 476 kts 333°
2026-05-05 05:54 19.27081 10.62096 30869 ft 476 kts 333°
2026-05-05 05:55 19.33096 10.59166 30869 ft 476 kts 333°
2026-05-05 05:55 19.39114 10.56231 30885 ft 476 kts 333°
2026-05-05 05:56 19.45125 10.53297 30879 ft 476 kts 333°
2026-05-05 05:56 19.51139 10.50363 30882 ft 475 kts 333°
2026-05-05 05:57 19.57122 10.47441 30884 ft 473 kts 333°
2026-05-05 05:57 19.63098 10.44517 30884 ft 473 kts 333°
2026-05-05 05:58 19.69076 10.41591 30886 ft 473 kts 333°
2026-05-05 05:58 19.75057 10.38660 30886 ft 473 kts 333°
2026-05-05 05:59 19.80999 10.35747 30889 ft 473 kts 333°
2026-05-05 05:59 19.86974 10.32815 30900 ft 471 kts 333°
2026-05-05 06:00 19.92921 10.29895 30891 ft 471 kts 333°
2026-05-05 06:00 19.98864 10.26973 30896 ft 470 kts 333°
2026-05-05 06:01 20.04803 10.24052 30897 ft 470 kts 333°
2026-05-05 06:01 20.10759 10.21119 30898 ft 470 kts 333°
2026-05-05 06:02 20.16705 10.18189 30898 ft 470 kts 333°
2026-05-05 06:02 20.22630 10.15268 30903 ft 467 kts 333°
2026-05-05 06:03 20.28492 10.12375 30908 ft 467 kts 333°
2026-05-05 06:03 20.34393 10.09459 30904 ft 467 kts 333°
2026-05-05 06:04 20.40291 10.06543 30902 ft 467 kts 333°
2026-05-05 06:04 20.46192 10.03623 30901 ft 467 kts 333°
2026-05-05 06:05 20.52104 10.00695 30913 ft 467 kts 333°
2026-05-05 06:05 20.57983 9.97783 30906 ft 465 kts 333°
2026-05-05 06:06 20.63856 9.94869 30907 ft 465 kts 333°
2026-05-05 06:06 20.69701 9.91966 30906 ft 465 kts 333°
2026-05-05 06:07 20.75574 9.89047 30905 ft 465 kts 333°
2026-05-05 06:07 20.81445 9.86127 30907 ft 465 kts 333°
2026-05-05 06:08 20.87320 9.83204 30921 ft 465 kts 333°
2026-05-05 06:08 20.93179 9.80286 30912 ft 464 kts 333°
2026-05-05 06:09 20.99044 9.77360 30910 ft 464 kts 333°
2026-05-05 06:09 21.04897 9.74438 30917 ft 464 kts 333°
2026-05-05 06:10 21.10720 9.71529 30915 ft 464 kts 333°
2026-05-05 06:10 21.16574 9.68602 30908 ft 464 kts 333°
2026-05-05 06:11 21.22436 9.65669 30916 ft 464 kts 333°
2026-05-05 06:11 21.28295 9.62735 30921 ft 464 kts 333°
2026-05-05 06:12 21.34149 9.59801 30918 ft 464 kts 333°
2026-05-05 06:12 21.40020 9.56855 30922 ft 464 kts 332°
2026-05-05 06:13 21.45835 9.53936 30920 ft 464 kts 332°
2026-05-05 06:13 21.51696 9.50990 30924 ft 464 kts 332°
2026-05-05 06:14 21.57544 9.48053 30928 ft 463 kts 332°
2026-05-05 06:14 21.63377 9.45115 30925 ft 463 kts 332°
2026-05-05 06:15 21.69220 9.42170 30918 ft 464 kts 332°
2026-05-05 06:15 21.75073 9.39219 30921 ft 464 kts 332°
2026-05-05 06:16 21.80899 9.36282 30921 ft 464 kts 332°
2026-05-05 06:16 21.86764 9.33321 30933 ft 464 kts 332°
2026-05-05 06:17 21.92624 9.30421 30925 ft 464 kts 334°
2026-05-05 06:17 21.98717 9.27939 31514 ft 468 kts 337°
2026-05-05 06:18 22.01762 9.26779 32175 ft 463 kts 337°
2026-05-05 06:18 22.04792 9.25630 32815 ft 459 kts 336°
2026-05-05 06:18 22.07797 9.24490 33404 ft 456 kts 336°
2026-05-05 06:18 22.10787 9.23354 33829 ft 455 kts 336°
2026-05-05 06:19 22.16746 9.21086 33918 ft 453 kts 336°
2026-05-05 06:19 22.22663 9.18833 33923 ft 453 kts 336°
2026-05-05 06:20 22.28623 9.16561 33923 ft 454 kts 336°
2026-05-05 06:20 22.34582 9.14289 33929 ft 453 kts 336°
2026-05-05 06:21 22.40535 9.12017 33926 ft 453 kts 336°
2026-05-05 06:21 22.46446 9.09760 33929 ft 453 kts 336°
2026-05-05 06:22 22.52404 9.07483 33934 ft 454 kts 336°
2026-05-05 06:22 22.58350 9.05210 33936 ft 453 kts 336°
2026-05-05 06:23 22.64311 9.02928 33940 ft 453 kts 336°
2026-05-05 06:23 22.69244 9.01037 33939 ft 453 kts 336°
2026-05-05 06:24 22.75182 8.98759 33947 ft 453 kts 336°
2026-05-05 06:24 22.81123 8.96479 33946 ft 453 kts 336°
2026-05-05 06:25 22.87061 8.94198 33972 ft 452 kts 335°
2026-05-05 06:25 22.92995 8.91917 33952 ft 452 kts 335°
2026-05-05 06:26 22.98931 8.89631 33959 ft 452 kts 335°
2026-05-05 06:26 23.04859 8.87347 33960 ft 452 kts 335°
2026-05-05 06:27 23.17224 8.82576 33965 ft 452 kts 335°
2026-05-05 06:28 23.29110 8.77982 33975 ft 450 kts 335°
2026-05-05 06:28 23.40933 8.73401 33977 ft 450 kts 335°
2026-05-05 06:29 23.52776 8.68805 33992 ft 451 kts 335°
2026-05-05 06:29 23.64576 8.64218 33986 ft 450 kts 335°
2026-05-05 06:30 23.76364 8.59625 33986 ft 450 kts 335°
2026-05-05 06:30 23.88128 8.55034 33989 ft 449 kts 335°
2026-05-05 06:31 23.99903 8.50430 33990 ft 449 kts 335°
2026-05-05 06:31 24.11669 8.45819 33994 ft 449 kts 335°
2026-05-05 06:32 24.23445 8.41197 33994 ft 450 kts 335°
2026-05-05 06:32 24.35255 8.36551 33996 ft 450 kts 335°
2026-05-05 06:33 24.47069 8.31896 33997 ft 450 kts 335°
2026-05-05 06:33 24.58869 8.27235 34006 ft 450 kts 335°
2026-05-05 06:34 24.70662 8.22568 34005 ft 450 kts 335°
2026-05-05 06:34 24.82409 8.17912 34024 ft 451 kts 334°
2026-05-05 06:35 24.94231 8.13214 34004 ft 451 kts 334°
2026-05-05 06:35 25.06062 8.08504 34006 ft 451 kts 334°
2026-05-05 06:36 25.17879 8.03793 34016 ft 451 kts 334°
2026-05-05 06:36 25.29851 7.99005 34014 ft 451 kts 334°
2026-05-05 06:37 25.41820 7.94209 34012 ft 452 kts 334°
2026-05-05 06:37 25.53661 7.89458 34011 ft 452 kts 334°
2026-05-05 06:38 25.65423 7.84727 33998 ft 452 kts 334°
2026-05-05 06:38 25.77248 7.79962 34014 ft 451 kts 334°
2026-05-05 06:39 25.89036 7.75205 33990 ft 450 kts 334°
2026-05-05 06:39 26.00816 7.70441 33976 ft 450 kts 334°
2026-05-05 06:40 26.12604 7.65717 33962 ft 448 kts 334°
2026-05-05 06:40 26.24349 7.61012 33947 ft 448 kts 334°
2026-05-05 06:41 26.36097 7.56297 33933 ft 451 kts 334°
2026-05-05 06:41 26.47883 7.51556 33926 ft 449 kts 334°
2026-05-05 06:42 26.59567 7.46846 33920 ft 449 kts 334°
2026-05-05 06:42 26.71311 7.42102 33926 ft 448 kts 334°
2026-05-05 06:43 26.83031 7.37358 33914 ft 447 kts 334°
2026-05-05 06:43 26.94741 7.32606 33912 ft 447 kts 334°
2026-05-05 06:44 27.06441 7.27848 33908 ft 446 kts 334°
2026-05-05 06:44 27.18125 7.23086 33905 ft 446 kts 334°
2026-05-05 06:45 27.29805 7.18316 33924 ft 447 kts 334°
2026-05-05 06:45 27.41521 7.13520 33908 ft 448 kts 334°
2026-05-05 06:46 27.53242 7.08711 33905 ft 447 kts 334°
2026-05-05 06:46 27.64861 7.03935 33906 ft 447 kts 334°
2026-05-05 06:47 27.76665 6.99072 33903 ft 447 kts 334°
2026-05-05 06:47 27.88431 6.94215 33903 ft 447 kts 334°
2026-05-05 06:48 27.99901 6.89471 33905 ft 450 kts 334°
2026-05-05 06:48 28.11951 6.85333 33897 ft 456 kts 342°
2026-05-05 06:49 28.24716 6.83766 33905 ft 468 kts 352°
2026-05-05 06:49 28.37880 6.83612 33894 ft 469 kts 352°
2026-05-05 06:50 28.51021 6.83481 33910 ft 469 kts 352°
2026-05-05 06:50 28.64374 6.83341 33894 ft 471 kts 352°
2026-05-05 06:51 28.77521 6.83205 33890 ft 471 kts 352°
2026-05-05 06:51 28.90766 6.83067 33889 ft 472 kts 352°
2026-05-05 06:52 29.04255 6.82926 33889 ft 472 kts 353°
2026-05-05 06:52 29.17508 6.82787 33892 ft 472 kts 353°
2026-05-05 06:53 29.30582 6.82651 33883 ft 472 kts 352°
2026-05-05 06:53 29.43757 6.82512 33891 ft 472 kts 352°
2026-05-05 06:54 29.56906 6.82372 33881 ft 473 kts 352°
2026-05-05 06:54 29.70067 6.82234 33892 ft 473 kts 352°
2026-05-05 06:55 29.83258 6.82093 33885 ft 473 kts 352°
2026-05-05 06:55 29.96595 6.81952 33902 ft 473 kts 352°
2026-05-05 06:56 30.09946 6.81808 33887 ft 474 kts 352°
2026-05-05 06:56 30.23201 6.81666 33907 ft 474 kts 352°
2026-05-05 06:57 30.33472 6.81556 33886 ft 475 kts 352°
2026-05-05 06:57 30.40101 6.81484 33888 ft 475 kts 352°
2026-05-05 06:58 30.46713 6.81413 33889 ft 475 kts 352°
2026-05-05 06:58 30.53323 6.81342 33890 ft 475 kts 352°
2026-05-05 06:59 30.59935 6.81271 33891 ft 475 kts 352°
2026-05-05 06:59 30.66555 6.81199 33891 ft 475 kts 352°
2026-05-05 07:00 30.73169 6.81128 33890 ft 475 kts 352°
2026-05-05 07:00 30.79743 6.81057 33912 ft 476 kts 352°
2026-05-05 07:01 30.86373 6.80986 33894 ft 476 kts 352°
2026-05-05 07:01 30.93008 6.80915 33892 ft 476 kts 352°
2026-05-05 07:02 30.99641 6.80844 33891 ft 476 kts 352°
2026-05-05 07:02 31.06270 6.80772 33896 ft 476 kts 352°
2026-05-05 07:03 31.12901 6.80703 33901 ft 477 kts 351°
2026-05-05 07:03 31.19541 6.80630 33906 ft 477 kts 351°
2026-05-05 07:04 31.26177 6.80556 33906 ft 477 kts 351°
2026-05-05 07:04 31.32822 6.80483 33904 ft 477 kts 351°
2026-05-05 07:05 31.39463 6.80412 33907 ft 477 kts 351°
2026-05-05 07:05 31.46066 6.80339 33907 ft 478 kts 351°
2026-05-05 07:06 31.52711 6.80268 33906 ft 477 kts 351°
2026-05-05 07:06 31.59354 6.80195 33909 ft 477 kts 351°
2026-05-05 07:07 31.66009 6.80124 33920 ft 477 kts 351°
2026-05-05 07:07 31.72659 6.80050 33916 ft 477 kts 351°
2026-05-05 07:08 31.79306 6.79976 33915 ft 477 kts 351°
2026-05-05 07:08 31.85910 6.79902 33917 ft 477 kts 351°
2026-05-05 07:09 31.92554 6.79829 33928 ft 477 kts 351°
2026-05-05 07:09 31.99195 6.79755 33921 ft 477 kts 351°
2026-05-05 07:10 32.05831 6.79681 33922 ft 477 kts 351°
2026-05-05 07:10 32.12466 6.79606 33925 ft 477 kts 351°
2026-05-05 07:11 32.19104 6.79532 33942 ft 477 kts 351°
2026-05-05 07:11 32.24611 6.79472 33936 ft 476 kts 351°
2026-05-05 07:12 32.31240 6.79395 33930 ft 476 kts 351°
2026-05-05 07:12 32.37875 6.79318 33933 ft 476 kts 351°
2026-05-05 07:13 32.44504 6.79243 33963 ft 476 kts 351°
2026-05-05 07:13 32.51081 6.79169 33940 ft 475 kts 351°
2026-05-05 07:14 32.57693 6.79094 33934 ft 475 kts 351°
2026-05-05 07:14 32.64307 6.79019 33931 ft 475 kts 351°
2026-05-05 07:15 32.70934 6.78944 33960 ft 475 kts 351°
2026-05-05 07:15 32.77541 6.78872 33949 ft 474 kts 351°
2026-05-05 07:16 32.84138 6.78796 33946 ft 474 kts 351°
2026-05-05 07:16 32.90737 6.78720 33947 ft 474 kts 351°
2026-05-05 07:17 32.97297 6.78644 33950 ft 474 kts 351°
2026-05-05 07:17 33.03893 6.78570 33957 ft 474 kts 351°
2026-05-05 07:18 33.10489 6.78494 33962 ft 474 kts 351°
2026-05-05 07:18 33.17090 6.78420 33962 ft 474 kts 351°
2026-05-05 07:19 33.23650 6.78346 33967 ft 474 kts 351°
2026-05-05 07:19 33.30249 6.78272 33977 ft 474 kts 351°
2026-05-05 07:20 33.36844 6.78200 33984 ft 474 kts 351°
2026-05-05 07:20 33.43444 6.78129 33987 ft 474 kts 351°
2026-05-05 07:21 33.50039 6.78053 34003 ft 473 kts 350°
2026-05-05 07:21 33.56616 6.77711 33992 ft 473 kts 348°
2026-05-05 07:22 33.63202 6.77299 33987 ft 474 kts 348°
2026-05-05 07:22 33.69784 6.76892 33982 ft 474 kts 348°
2026-05-05 07:23 33.76370 6.76489 33972 ft 474 kts 348°
2026-05-05 07:23 33.82991 6.76072 33985 ft 479 kts 349°
2026-05-05 07:24 33.89619 6.75672 33982 ft 480 kts 349°
2026-05-05 07:24 33.96295 6.75269 33986 ft 480 kts 349°
2026-05-05 07:25 34.02959 6.74864 33983 ft 480 kts 349°
2026-05-05 07:25 34.09659 6.74444 33993 ft 483 kts 350°
2026-05-05 07:26 34.16384 6.74035 33987 ft 484 kts 350°
2026-05-05 07:26 34.23112 6.73626 33986 ft 484 kts 350°
2026-05-05 07:27 34.29842 6.73213 34021 ft 484 kts 351°
2026-05-05 07:27 34.36602 6.72787 33991 ft 488 kts 351°
2026-05-05 07:28 34.43343 6.72382 33991 ft 488 kts 351°
2026-05-05 07:28 34.50132 6.71969 33996 ft 488 kts 351°
2026-05-05 07:29 34.56967 6.71546 34017 ft 489 kts 352°
2026-05-05 07:29 34.63745 6.71123 34004 ft 492 kts 352°
2026-05-05 07:30 34.70587 6.70706 34011 ft 492 kts 352°
2026-05-05 07:30 34.80844 6.70072 34044 ft 492 kts 352°
2026-05-05 07:31 34.87691 6.69639 34049 ft 492 kts 352°
2026-05-05 07:31 34.94487 6.69220 34036 ft 493 kts 352°
2026-05-05 07:32 35.01344 6.68798 34049 ft 493 kts 352°
2026-05-05 07:32 35.08214 6.68376 34073 ft 493 kts 352°
2026-05-05 07:33 35.15074 6.67953 34062 ft 494 kts 352°
2026-05-05 07:33 35.21901 6.67531 34060 ft 494 kts 352°
2026-05-05 07:34 35.28772 6.67106 34065 ft 494 kts 352°
2026-05-05 07:34 35.35655 6.66680 34080 ft 494 kts 352°
2026-05-05 07:35 35.42518 6.66253 34077 ft 494 kts 352°
2026-05-05 07:35 35.49386 6.65827 34077 ft 494 kts 352°
2026-05-05 07:36 35.56254 6.65400 34064 ft 494 kts 352°
2026-05-05 07:36 35.63116 6.64973 34072 ft 492 kts 352°
2026-05-05 07:37 35.69960 6.64545 34065 ft 492 kts 352°
2026-05-05 07:37 35.76798 6.64117 34067 ft 492 kts 352°
2026-05-05 07:38 35.83643 6.63688 34065 ft 492 kts 352°
2026-05-05 07:38 35.90437 6.63262 34057 ft 492 kts 352°
2026-05-05 07:39 35.97281 6.62832 34063 ft 492 kts 352°
2026-05-05 07:39 36.04122 6.62402 34074 ft 492 kts 352°
2026-05-05 07:40 36.10978 6.61973 34086 ft 492 kts 352°
2026-05-05 07:40 36.17814 6.61545 34098 ft 491 kts 352°
2026-05-05 07:41 36.24644 6.61123 34097 ft 492 kts 353°
2026-05-05 07:41 36.31473 6.61236 34097 ft 496 kts 359°
2026-05-05 07:42 36.38353 6.62124 34099 ft 497 kts
2026-05-05 07:42 36.45221 6.63180 34078 ft 497 kts
2026-05-05 07:43 36.52093 6.64239 34060 ft 496 kts
2026-05-05 07:43 36.58957 6.65293 34032 ft 497 kts
2026-05-05 07:44 36.65817 6.66342 34028 ft 497 kts
2026-05-05 07:44 36.72680 6.67391 34012 ft 497 kts
2026-05-05 07:45 36.79500 6.68436 34011 ft 497 kts
2026-05-05 07:45 36.86373 6.69496 34017 ft 498 kts
2026-05-05 07:46 36.93266 6.70554 34013 ft 498 kts
2026-05-05 07:46 37.00141 6.71611 34004 ft 498 kts
2026-05-05 07:47 37.07018 6.72674 34015 ft 498 kts
2026-05-05 07:47 37.13854 6.73732 34008 ft 498 kts
2026-05-05 07:48 37.20746 6.74798 34004 ft 499 kts
2026-05-05 07:48 37.27633 6.75867 33998 ft 499 kts
2026-05-05 07:49 37.34529 6.76942 34007 ft 500 kts
2026-05-05 07:49 37.41439 6.78017 33998 ft 500 kts
2026-05-05 07:50 37.48374 6.79098 34000 ft 500 kts
2026-05-05 07:50 37.55304 6.80184 34008 ft 501 kts
2026-05-05 07:51 37.62233 6.81269 34001 ft 501 kts
2026-05-05 07:51 37.69211 6.82363 34001 ft 501 kts
2026-05-05 07:52 37.76134 6.83452 34023 ft 501 kts
2026-05-05 07:52 37.83022 6.84538 33998 ft 502 kts
2026-05-05 07:53 37.89954 6.85632 34002 ft 501 kts
2026-05-05 07:53 37.96880 6.86727 34002 ft 501 kts
2026-05-05 07:54 38.03808 6.87827 34007 ft 502 kts
2026-05-05 07:54 38.10754 6.88929 34003 ft 503 kts
2026-05-05 07:55 38.17697 6.90033 34000 ft 503 kts
2026-05-05 07:55 38.24643 6.91140 34003 ft 503 kts
2026-05-05 07:56 38.31592 6.92250 34001 ft 503 kts
2026-05-05 07:56 38.38501 6.93356 34001 ft 503 kts
2026-05-05 07:57 38.45441 6.94469 34030 ft 503 kts
2026-05-05 07:57 38.52400 6.95589 34001 ft 504 kts
2026-05-05 07:58 38.59365 6.96709 34001 ft 504 kts
2026-05-05 07:58 38.66333 6.97833 34008 ft 505 kts
2026-05-05 07:59 38.73304 6.98962 34013 ft 505 kts
2026-05-05 07:59 38.80285 7.00093 34010 ft 506 kts
2026-05-05 08:00 38.87232 7.01223 34010 ft 506 kts
2026-05-05 08:00 38.94216 7.02365 34023 ft 507 kts
2026-05-05 08:01 39.01220 7.03511 34012 ft 508 kts
2026-05-05 08:01 39.07105 7.04530 34009 ft 509 kts
2026-05-05 08:02 39.14086 7.05766 34030 ft 509 kts
2026-05-05 08:02 39.21110 7.07013 34018 ft 510 kts
2026-05-05 08:03 39.28140 7.08259 34013 ft 510 kts
2026-05-05 08:03 39.35185 7.09509 34016 ft 510 kts
2026-05-05 08:04 39.42244 7.10766 34013 ft 511 kts
2026-05-05 08:04 39.49294 7.12024 34010 ft 511 kts
2026-05-05 08:05 39.56341 7.13286 34006 ft 511 kts
2026-05-05 08:05 39.63393 7.14552 34022 ft 511 kts
2026-05-05 08:06 39.70436 7.15931 34015 ft 514 kts
2026-05-05 08:06 39.77430 7.18175 34009 ft 521 kts 11°
2026-05-05 08:07 39.84279 7.21141 34029 ft 523 kts 13°
2026-05-05 08:07 39.91165 7.24239 34014 ft 523 kts 13°
2026-05-05 08:08 39.98047 7.27328 34012 ft 523 kts 13°
2026-05-05 08:08 40.04935 7.30410 34018 ft 523 kts 13°
2026-05-05 08:09 40.11829 7.33496 34009 ft 523 kts 13°
2026-05-05 08:09 40.18710 7.36584 34010 ft 523 kts 13°
2026-05-05 08:10 40.25594 7.39677 34030 ft 523 kts 13°
2026-05-05 08:10 40.32434 7.42753 34010 ft 523 kts 14°
2026-05-05 08:11 40.39333 7.45871 34002 ft 524 kts 14°
2026-05-05 08:11 40.46230 7.48994 34003 ft 524 kts 14°
2026-05-05 08:12 40.53116 7.52116 34001 ft 524 kts 14°
2026-05-05 08:12 40.60012 7.55250 34001 ft 524 kts 14°
2026-05-05 08:13 40.66902 7.58387 34021 ft 524 kts 14°
2026-05-05 08:13 40.73795 7.61526 34002 ft 524 kts 14°
2026-05-05 08:14 40.80692 7.64685 33997 ft 524 kts 14°
2026-05-05 08:14 40.87544 7.67828 33999 ft 524 kts 14°
2026-05-05 08:15 40.94450 7.70998 34001 ft 525 kts 14°
2026-05-05 08:15 41.01360 7.74182 33999 ft 525 kts 14°
2026-05-05 08:16 41.08267 7.77370 34002 ft 525 kts 14°
2026-05-05 08:16 41.15177 7.80563 34004 ft 526 kts 15°
2026-05-05 08:17 41.22094 7.83771 33998 ft 526 kts 15°
2026-05-05 08:17 41.29012 7.86986 33995 ft 526 kts 15°
2026-05-05 08:18 41.35887 7.90185 33997 ft 527 kts 15°
2026-05-05 08:18 41.42807 7.93416 33995 ft 527 kts 15°
2026-05-05 08:19 41.49724 7.96651 33990 ft 527 kts 15°
2026-05-05 08:19 41.56633 7.99892 33987 ft 526 kts 15°
2026-05-05 08:20 41.63531 8.03133 33985 ft 525 kts 15°
2026-05-05 08:20 41.70429 8.06381 33991 ft 525 kts 15°
2026-05-05 08:21 41.77328 8.09637 33996 ft 526 kts 15°
2026-05-05 08:21 41.84224 8.12900 33990 ft 526 kts 15°
2026-05-05 08:22 41.91094 8.16158 34002 ft 526 kts 15°
2026-05-05 08:22 41.98000 8.19442 33991 ft 526 kts 15°
2026-05-05 08:23 42.04905 8.22732 33982 ft 526 kts 15°
2026-05-05 08:23 42.11822 8.26037 33995 ft 526 kts 15°
2026-05-05 08:24 42.18727 8.29347 33979 ft 526 kts 15°
2026-05-05 08:24 42.25629 8.32662 33967 ft 526 kts 15°
2026-05-05 08:25 42.32527 8.35997 33967 ft 525 kts 16°
2026-05-05 08:25 42.39314 8.39653 33963 ft 525 kts 18°
2026-05-05 08:26 42.46066 8.43409 33963 ft 524 kts 18°
2026-05-05 08:26 42.52778 8.47152 33957 ft 524 kts 18°
2026-05-05 08:27 42.59534 8.50919 33956 ft 525 kts 18°
2026-05-05 08:27 42.66290 8.54693 33960 ft 525 kts 18°
2026-05-05 08:28 42.73041 8.58473 33969 ft 524 kts 18°
2026-05-05 08:28 42.79780 8.62254 33956 ft 524 kts 18°
2026-05-05 08:29 42.86518 8.66043 33950 ft 524 kts 18°
2026-05-05 08:30 42.96631 8.71748 33945 ft 524 kts 18°
2026-05-05 08:30 43.03324 8.75538 33953 ft 521 kts 18°
2026-05-05 08:31 43.10029 8.79341 33964 ft 521 kts 18°
2026-05-05 08:31 43.16734 8.83155 33947 ft 521 kts 18°
2026-05-05 08:32 43.23428 8.86975 33947 ft 521 kts 18°
2026-05-05 08:32 43.30131 8.90752 33962 ft 519 kts 15°
2026-05-05 08:33 43.36990 8.93657 33951 ft 513 kts
2026-05-05 08:33 43.43981 8.95353 33948 ft 507 kts
2026-05-05 08:34 43.50946 8.95864 33957 ft 503 kts 354°
2026-05-05 08:34 43.57945 8.95832 33943 ft 503 kts 354°
2026-05-05 08:35 43.64948 8.95797 33941 ft 504 kts 354°
2026-05-05 08:35 43.71965 8.95982 33945 ft 505 kts 355°
2026-05-05 08:36 43.78992 8.96229 33940 ft 505 kts 355°
2026-05-05 08:36 43.86040 8.96469 33939 ft 505 kts 355°
2026-05-05 08:37 43.93071 8.96695 33944 ft 506 kts 356°
2026-05-05 08:37 44.00120 8.96926 33940 ft 507 kts 356°
2026-05-05 08:38 44.07174 8.97158 33953 ft 507 kts 356°
2026-05-05 08:38 44.14195 8.97383 33940 ft 509 kts 356°
2026-05-05 08:39 44.21280 8.97617 33947 ft 509 kts 356°
2026-05-05 08:39 44.28361 8.97847 33954 ft 509 kts 356°
2026-05-05 08:40 44.35464 8.98076 33962 ft 511 kts 357°
2026-05-05 08:40 44.42572 8.98314 33959 ft 511 kts 357°
2026-05-05 08:41 44.49685 8.98551 33961 ft 511 kts 357°
2026-05-05 08:41 44.56797 8.98787 33958 ft 511 kts 356°
2026-05-05 08:42 44.63908 8.99022 33965 ft 511 kts 357°
2026-05-05 08:42 44.71026 8.99250 33975 ft 512 kts 357°
2026-05-05 08:43 44.78158 8.99492 33980 ft 513 kts 357°
2026-05-05 08:43 44.85289 8.99732 33989 ft 513 kts 358°
2026-05-05 08:44 44.92438 8.99968 33979 ft 514 kts 358°
2026-05-05 08:44 44.99581 9.00211 33985 ft 514 kts 358°
2026-05-05 08:45 45.06681 9.00445 33989 ft 513 kts 358°
2026-05-05 08:45 45.13826 9.00687 33963 ft 514 kts 358°
2026-05-05 08:46 45.20973 9.00932 33973 ft 514 kts 358°
2026-05-05 08:46 45.28124 9.01171 33978 ft 514 kts 359°
2026-05-05 08:47 45.35275 9.01417 33983 ft 514 kts 359°
2026-05-05 08:47 45.42438 9.01663 33994 ft 514 kts 359°
2026-05-05 08:48 45.48390 9.01861 33987 ft 516 kts 359°
2026-05-05 08:48 45.55578 9.02111 33985 ft 516 kts 359°
2026-05-05 08:49 45.63929 9.02399 33988 ft 517 kts 359°
2026-05-05 08:49 45.69962 9.02606 33994 ft 518 kts 359°
2026-05-05 08:50 45.77174 9.02859 33991 ft 518 kts 359°
2026-05-05 08:50 45.84383 9.03107 34009 ft 519 kts 360°
2026-05-05 08:51 45.91616 9.03359 34016 ft 520 kts 360°
2026-05-05 08:51 45.98799 9.03617 34016 ft 520 kts 360°
2026-05-05 08:52 46.06048 9.03872 34013 ft 522 kts
2026-05-05 08:52 46.13321 9.04135 34011 ft 523 kts
2026-05-05 08:53 46.20601 9.04068 34018 ft 523 kts 357°
2026-05-05 08:53 46.27873 9.03725 34011 ft 523 kts 357°
2026-05-05 08:54 46.35179 9.03383 34017 ft 523 kts 357°
2026-05-05 08:54 46.42457 9.03057 34007 ft 524 kts 357°
2026-05-05 08:55 46.49738 9.02740 33990 ft 523 kts 357°
2026-05-05 08:55 46.57014 9.02424 33998 ft 523 kts 357°
2026-05-05 08:56 46.64249 9.02107 33979 ft 524 kts 357°
2026-05-05 08:56 46.71542 9.01786 33963 ft 524 kts 357°
2026-05-05 08:57 46.78850 9.01464 33919 ft 525 kts 357°
2026-05-05 08:57 46.86170 9.01146 33936 ft 525 kts 357°
2026-05-05 08:58 46.93478 9.00825 33924 ft 526 kts 357°
2026-05-05 08:58 47.00807 9.00497 33898 ft 526 kts 357°
2026-05-05 08:59 47.08131 9.00168 33888 ft 526 kts 357°
2026-05-05 08:59 47.15390 8.99846 33876 ft 525 kts 357°
2026-05-05 09:00 47.22702 8.99521 33884 ft 525 kts 357°
2026-05-05 09:00 47.30007 8.99197 33890 ft 525 kts 357°
2026-05-05 09:01 47.37302 8.98870 33889 ft 524 kts 357°
2026-05-05 09:01 47.44603 8.98540 33889 ft 524 kts 357°
2026-05-05 09:02 47.51892 8.98215 33887 ft 523 kts 356°
2026-05-05 09:02 47.59173 8.97884 33883 ft 523 kts 356°
2026-05-05 09:03 47.66449 8.97550 33883 ft 523 kts 356°
2026-05-05 09:03 47.73667 8.97222 33874 ft 522 kts 356°
2026-05-05 09:04 47.80928 8.96892 33868 ft 521 kts 356°
2026-05-05 09:04 47.88184 8.96563 33861 ft 521 kts 356°
2026-05-05 09:05 47.95446 8.96241 33861 ft 523 kts 356°
2026-05-05 09:05 48.02718 8.95913 33857 ft 523 kts 356°
2026-05-05 09:06 48.10010 8.95582 33856 ft 527 kts 356°
2026-05-05 09:06 48.17367 8.95499 33858 ft 530 kts
2026-05-05 09:07 48.24727 8.96388 33855 ft 531 kts
2026-05-05 09:07 48.32077 8.97563 33861 ft 531 kts
2026-05-05 09:07 48.35723 8.98145 33658 ft 523 kts
2026-05-05 09:08 48.39326 8.98708 32410 ft 519 kts
2026-05-05 09:08 48.42929 8.99255 30791 ft 521 kts
2026-05-05 09:08 48.46540 8.99799 29064 ft 522 kts
2026-05-05 09:08 48.50147 9.00345 27612 ft 516 kts
2026-05-05 09:09 48.53676 9.00887 26331 ft 506 kts
2026-05-05 09:09 48.57132 9.01420 25138 ft 494 kts
2026-05-05 09:09 48.60523 9.01942 23997 ft 484 kts
2026-05-05 09:09 48.63834 9.02537 22773 ft 473 kts
2026-05-05 09:10 48.67026 9.03252 21451 ft 464 kts
2026-05-05 09:10 48.70193 9.04009 20157 ft 457 kts
2026-05-05 09:10 48.73301 9.04766 18928 ft 450 kts
2026-05-05 09:10 48.76369 9.05510 17977 ft 440 kts
2026-05-05 09:11 48.79359 9.06236 17693 ft 435 kts
2026-05-05 09:11 48.82348 9.06958 17422 ft 433 kts
2026-05-05 09:11 48.85320 9.07674 17160 ft 432 kts
2026-05-05 09:11 48.88286 9.08340 16896 ft 430 kts
2026-05-05 09:12 48.91251 9.08825 16629 ft 428 kts
2026-05-05 09:12 48.94215 9.09249 16380 ft 426 kts
2026-05-05 09:12 48.97163 9.09662 16125 ft 425 kts
2026-05-05 09:12 49.00059 9.10068 15870 ft 423 kts
2026-05-05 09:13 49.02989 9.10479 15619 ft 421 kts
2026-05-05 09:13 49.05905 9.10889 15374 ft 420 kts
2026-05-05 09:13 49.08811 9.11300 15120 ft 418 kts
2026-05-05 09:13 49.11699 9.11712 14872 ft 416 kts
2026-05-05 09:14 49.14586 9.12126 14633 ft 415 kts
2026-05-05 09:14 49.17455 9.12540 14386 ft 413 kts
2026-05-05 09:14 49.20308 9.12953 14140 ft 411 kts
2026-05-05 09:14 49.23149 9.13361 13898 ft 409 kts
2026-05-05 09:15 49.25981 9.13772 13678 ft 407 kts
2026-05-05 09:15 49.28787 9.14353 13406 ft 406 kts
2026-05-05 09:15 49.31553 9.15189 13135 ft 404 kts 11°
2026-05-05 09:15 49.34291 9.16142 12874 ft 402 kts 12°
2026-05-05 09:16 49.37008 9.17118 12612 ft 400 kts 12°
2026-05-05 09:16 49.39713 9.18093 12349 ft 398 kts 12°
2026-05-05 09:16 49.42398 9.19057 12097 ft 395 kts 12°
2026-05-05 09:16 49.45068 9.20012 11836 ft 393 kts 12°
2026-05-05 09:17 49.47726 9.20961 11537 ft 391 kts 12°
2026-05-05 09:17 49.50330 9.21889 11189 ft 388 kts 12°
2026-05-05 09:17 49.52940 9.22819 10725 ft 383 kts 12°
2026-05-05 09:17 49.55525 9.23739 10241 ft 378 kts 12°
2026-05-05 09:18 49.58047 9.24638 10035 ft 365 kts 13°
2026-05-05 09:18 49.60483 9.25509 9531 ft 351 kts 13°
2026-05-05 09:18 49.62806 9.26343 8983 ft 334 kts 13°
2026-05-05 09:18 49.65010 9.27135 8573 ft 316 kts 13°
2026-05-05 09:19 49.67096 9.27885 8236 ft 299 kts 13°
2026-05-05 09:19 49.69082 9.28600 7766 ft 289 kts 13°
2026-05-05 09:19 49.71031 9.29299 7146 ft 286 kts 13°
2026-05-05 09:19 49.72965 9.29995 6533 ft 284 kts 13°
2026-05-05 09:20 49.74883 9.30686 5937 ft 282 kts 13°
2026-05-05 09:20 49.76786 9.31372 5332 ft 279 kts 13°
2026-05-05 09:20 49.78657 9.32046 5014 ft 275 kts 13°
2026-05-05 09:20 49.80535 9.32706 5016 ft 277 kts
2026-05-05 09:21 49.82455 9.32788 5038 ft 277 kts 352°
2026-05-05 09:21 49.84286 9.32023 5015 ft 276 kts 335°
2026-05-05 09:21 49.85949 9.30551 5011 ft 276 kts 327°
2026-05-05 09:21 49.87632 9.29017 4828 ft 276 kts 329°
2026-05-05 09:22 49.89267 9.27572 4604 ft 273 kts 329°
2026-05-05 09:22 49.90914 9.26115 4362 ft 272 kts 329°
2026-05-05 09:22 49.92558 9.24656 4136 ft 271 kts 329°
2026-05-05 09:22 49.94187 9.23205 4007 ft 269 kts 329°
2026-05-05 09:23 49.95811 9.21755 4002 ft 269 kts 329°
2026-05-05 09:23 49.97440 9.20300 4000 ft 270 kts 329°
2026-05-05 09:23 49.99073 9.18845 4002 ft 271 kts 329°
2026-05-05 09:23 50.00711 9.17389 3997 ft 271 kts 329°
2026-05-05 09:24 50.02347 9.15927 4001 ft 270 kts 329°
2026-05-05 09:24 50.03979 9.14466 4003 ft 271 kts 329°
2026-05-05 09:24 50.05615 9.13003 4003 ft 270 kts 329°
2026-05-05 09:24 50.07247 9.11546 3996 ft 270 kts 329°
2026-05-05 09:25 50.08878 9.10093 3998 ft 269 kts 329°
2026-05-05 09:25 50.10513 9.08639 3996 ft 268 kts 329°
2026-05-05 09:25 50.12090 9.07235 3992 ft 254 kts 329°
2026-05-05 09:25 50.13577 9.05885 3980 ft 240 kts 322°
2026-05-05 09:26 50.14590 9.03966 3950 ft 226 kts 289°
2026-05-05 09:26 50.14734 9.01584 3978 ft 222 kts 255°
2026-05-05 09:26 50.14072 8.99435 4007 ft 221 kts 236°
2026-05-05 09:26 50.13273 8.97391 4015 ft 221 kts 241°
2026-05-05 09:27 50.12628 8.95216 4000 ft 221 kts 249°
2026-05-05 09:27 50.12130 8.92940 3998 ft 221 kts 251°
2026-05-05 09:27 50.11651 8.90680 3995 ft 221 kts 250°
2026-05-05 09:27 50.11135 8.88415 3993 ft 221 kts 249°
2026-05-05 09:28 50.10602 8.86161 3973 ft 222 kts 249°
2026-05-05 09:28 50.10061 8.83914 3747 ft 220 kts 248°
2026-05-05 09:28 50.09524 8.81685 3490 ft 217 kts 249°
2026-05-05 09:28 50.09004 8.79531 3208 ft 209 kts 249°
2026-05-05 09:29 50.08502 8.77442 2881 ft 202 kts 249°
2026-05-05 09:29 50.08017 8.75426 2622 ft 196 kts 249°
2026-05-05 09:29 50.07544 8.73456 2378 ft 193 kts 249°
2026-05-05 09:29 50.07075 8.71503 2117 ft 190 kts 249°
2026-05-05 09:30 50.06623 8.69617 1853 ft 181 kts 250°
2026-05-05 09:30 50.06195 8.67826 1613 ft 172 kts 250°
2026-05-05 09:30 50.05792 8.66139 1385 ft 162 kts 250°
2026-05-05 09:30 50.05401 8.64507 1182 ft 160 kts 250°
2026-05-05 09:31 50.05012 8.62877 989 ft 160 kts 250°
2026-05-05 09:31 50.04626 8.61260 763 ft 159 kts 250°
2026-05-05 09:31 50.04239 8.59650 559 ft 158 kts 250°
2026-05-05 09:31 50.03858 8.58045 387 ft 157 kts 250°
2026-05-05 09:32 50.03499 8.56535 365 ft 122 kts 249°
2026-05-05 09:32 50.03294 8.55682 357 ft 46 kts 250°
2026-05-05 09:32 50.03192 8.55244 357 ft 42 kts 250°
2026-05-05 09:32 50.03098 8.54848 356 ft 32 kts 250°
2026-05-05 09:33 50.03041 8.54675 350 ft 13 kts 210°
2026-05-05 09:33 50.02950 8.54708 353 ft 16 kts 132°
2026-05-05 09:33 50.02916 8.54876 356 ft 18 kts 82°
2026-05-05 09:33 50.02962 8.55085 359 ft 25 kts 70°
2026-05-05 09:34 50.03042 8.55424 355 ft 41 kts 70°
2026-05-05 09:34 50.03159 8.55913 362 ft 52 kts 70°
2026-05-05 09:34 50.03278 8.56408 362 ft 42 kts 69°
2026-05-05 09:34 50.03380 8.56832 365 ft 36 kts 69°
2026-05-05 09:35 50.03444 8.57106 366 ft 17 kts 77°
2026-05-05 09:35 50.03318 8.57313 370 ft 12 kts 125°
2026-05-05 09:35 50.03303 8.57334 366 ft 4 kts 152°
2026-05-05 09:36 50.03246 8.57324 369 ft 8 kts 205°
2026-05-05 09:36 50.03217 8.57303 371 ft 0 kts 205°
2026-05-05 09:36 50.03216 8.57303 371 ft 0 kts 205°